Observation data for Weinert on 01/17/2021      Previous  Date  Next       Current Mesonet Observations  Soil Data  Daily Summary Page  Observations in Plain Language
KWE1 170600Z 25004KT 01/M04 A3007 RMK A01 T00111036  RH  071%=      5-min Rain = 0
KWE1 170601Z 25004KT 01/M04 A3007 RMK A01 T00101036  RH  071%=      5-min Rain = 0
KWE1 170602Z 26004KT 01/M04 A3007 RMK A01 T00091036  RH  072%=      5-min Rain = 0
KWE1 170603Z 26004KT 01/M04 A3007 RMK A01 T00081036  RH  073%=      5-min Rain = 0
KWE1 170604Z 26004KT 01/M04 A3007 RMK A01 T00081035  RH  073%=      5-min Rain = 0
KWE1 170605Z 26004KT 01/M04 A3007 RMK A01 T00091035  RH  073%=      5-min Rain = 0
KWE1 170606Z 25004KT 01/M04 A3007 RMK A01 T00101035  RH  072%=      5-min Rain = 0
KWE1 170607Z 26004KT 01/M04 A3007 RMK A01 T00101035  RH  072%=      5-min Rain = 0
KWE1 170608Z 26005KT 01/M04 A3007 RMK A01 T00091036  RH  072%=      5-min Rain = 0
KWE1 170609Z 25005KT 01/M04 A3007 RMK A01 T00081036  RH  072%=      5-min Rain = 0
KWE1 170610Z 25005KT 01/M04 A3007 RMK A01 T00081036  RH  072%=      5-min Rain = 0
KWE1 170611Z 25005KT 01/M04 A3007 RMK A01 T00081036  RH  072%=      5-min Rain = 0
KWE1 170612Z 25005KT 01/M04 A3007 RMK A01 T00101035  RH  072%=      5-min Rain = 0
KWE1 170613Z 26005KT 01/M04 A3007 RMK A01 T00111035  RH  071%=      5-min Rain = 0
KWE1 170614Z 26005KT 01/M04 A3007 RMK A01 T00111035  RH  071%=      5-min Rain = 0
KWE1 170615Z 25005KT 01/M04 A3007 RMK A01 T00121036  RH  070%=      5-min Rain = 0
KWE1 170616Z 25005KT 01/M04 A3007 RMK A01 T00131036  RH  070%=      5-min Rain = 0
KWE1 170617Z 25005KT 01/M04 A3007 RMK A01 T00131037  RH  070%=      5-min Rain = 0
KWE1 170618Z 25005KT 01/M04 A3007 RMK A01 T00131037  RH  070%=      5-min Rain = 0
KWE1 170619Z 26005KT 01/M04 A3007 RMK A01 T00131036  RH  070%=      5-min Rain = 0
KWE1 170620Z 26004KT 01/M04 A3007 RMK A01 T00131037  RH  069%=      5-min Rain = 0
KWE1 170621Z 25004KT 01/M04 A3007 RMK A01 T00131037  RH  069%=      5-min Rain = 0
KWE1 170622Z 25004KT 01/M04 A3007 RMK A01 T00131037  RH  069%=      5-min Rain = 0
KWE1 170623Z 25004KT 01/M04 A3007 RMK A01 T00121038  RH  069%=      5-min Rain = 0
KWE1 170624Z 25005KT 01/M04 A3007 RMK A01 T00121038  RH  069%=      5-min Rain = 0
KWE1 170625Z 25005KT 01/M04 A3007 RMK A01 T00131037  RH  069%=      5-min Rain = 0
KWE1 170626Z 25005KT 01/M04 A3007 RMK A01 T00131037  RH  069%=      5-min Rain = 0
KWE1 170627Z 25005KT 01/M04 A3007 RMK A01 T00141037  RH  069%=      5-min Rain = 0
KWE1 170628Z 25005KT 01/M04 A3007 RMK A01 T00131037  RH  069%=      5-min Rain = 0
KWE1 170629Z 25004KT 01/M04 A3007 RMK A01 T00121038  RH  069%=      5-min Rain = 0
KWE1 170630Z 26004KT 01/M04 A3007 RMK A01 T00111039  RH  069%=      5-min Rain = 0
KWE1 170631Z 26004KT 01/M04 A3007 RMK A01 T00111038  RH  070%=      5-min Rain = 0
KWE1 170632Z 26004KT 01/M04 A3007 RMK A01 T00121037  RH  070%=      5-min Rain = 0
KWE1 170633Z 26005KT 01/M04 A3007 RMK A01 T00131036  RH  069%=      5-min Rain = 0
KWE1 170634Z 25004KT 02/M04 A3007 RMK A01 T00151037  RH  069%=      5-min Rain = 0
KWE1 170635Z 25004KT 02/M04 A3007 RMK A01 T00151037  RH  068%=      5-min Rain = 0
KWE1 170636Z 24004KT 02/M04 A3007 RMK A01 T00161037  RH  068%=      5-min Rain = 0
KWE1 170637Z 24004KT 02/M04 A3007 RMK A01 T00161037  RH  068%=      5-min Rain = 0
KWE1 170638Z 24005KT 02/M04 A3007 RMK A01 T00151038  RH  068%=      5-min Rain = 0
KWE1 170639Z 24005KT 02/M04 A3007 RMK A01 T00151038  RH  068%=      5-min Rain = 0
KWE1 170640Z 24004KT 02/M04 A3007 RMK A01 T00151038  RH  068%=      5-min Rain = 0
KWE1 170641Z 24004KT 01/M04 A3007 RMK A01 T00141039  RH  068%=      5-min Rain = 0
KWE1 170642Z 24004KT 01/M04 A3007 RMK A01 T00131039  RH  068%=      5-min Rain = 0
KWE1 170643Z 25004KT 01/M04 A3007 RMK A01 T00121039  RH  069%=      5-min Rain = 0
KWE1 170644Z 24004KT 01/M04 A3007 RMK A01 T00111038  RH  070%=      5-min Rain = 0
KWE1 170645Z 24004KT 01/M04 A3007 RMK A01 T00101038  RH  070%=      5-min Rain = 0
KWE1 170646Z 24004KT 01/M04 A3007 RMK A01 T00091038  RH  071%=      5-min Rain = 0
KWE1 170647Z 24003KT 01/M04 A3007 RMK A01 T00091037  RH  071%=      5-min Rain = 0
KWE1 170648Z 24003KT 01/M04 A3007 RMK A01 T00081037  RH  072%=      5-min Rain = 0
KWE1 170649Z 23003KT 01/M04 A3007 RMK A01 T00081036  RH  072%=      5-min Rain = 0
KWE1 170650Z 23003KT 01/M04 A3007 RMK A01 T00071037  RH  072%=      5-min Rain = 0
KWE1 170651Z 23003KT 01/M04 A3007 RMK A01 T00071037  RH  072%=      5-min Rain = 0
KWE1 170652Z 24003KT 01/M04 A3007 RMK A01 T00061038  RH  073%=      5-min Rain = 0
KWE1 170653Z 26002KT 01/M04 A3007 RMK A01 T00051038  RH  073%=      5-min Rain = 0
KWE1 170654Z 26002KT 01/M04 A3007 RMK A01 T00051037  RH  073%=      5-min Rain = 0
KWE1 170655Z 27003KT 00/M04 A3007 RMK A01 T00041038  RH  073%=      5-min Rain = 0
KWE1 170656Z 27002KT 00/M04 A3008 RMK A01 T00041038  RH  074%=      5-min Rain = 0
KWE1 170657Z 29002KT 00/M04 A3008 RMK A01 T00031038  RH  074%=      5-min Rain = 0
KWE1 170658Z 28002KT 00/M04 A3008 RMK A01 T00031038  RH  074%=      5-min Rain = 0
KWE1 170659Z 28003KT 00/M04 A3008 RMK A01 T00031038  RH  074%=      5-min Rain = 0
KWE1 170700Z 28003KT 00/M04 A3008 RMK A01 T00031037  RH  075%=      5-min Rain = 0
KWE1 170701Z 29003KT 00/M04 A3008 RMK A01 T00041036  RH  074%=      5-min Rain = 0
KWE1 170702Z 29003KT 01/M03 A3008 RMK A01 T00071034  RH  074%=      5-min Rain = 0
KWE1 170703Z 31003KT 01/M03 A3008 RMK A01 T00091034  RH  073%=      5-min Rain = 0
KWE1 170704Z 30003KT 01/M04 A3008 RMK A01 T00091035  RH  072%=      5-min Rain = 0
KWE1 170705Z 30002KT 01/M04 A3008 RMK A01 T00091036  RH  072%=      5-min Rain = 0
KWE1 170706Z 29003KT 01/M04 A3008 RMK A01 T00091036  RH  071%=      5-min Rain = 0
KWE1 170707Z 30002KT 01/M04 A3008 RMK A01 T00101036  RH  071%=      5-min Rain = 0
KWE1 170708Z 30003KT 01/M04 A3008 RMK A01 T00101036  RH  071%=      5-min Rain = 0
KWE1 170709Z 29003KT 01/M04 A3008 RMK A01 T00111036  RH  071%=      5-min Rain = 0
KWE1 170710Z 29003KT 01/M04 A3008 RMK A01 T00121035  RH  071%=      5-min Rain = 0
KWE1 170711Z 29003KT 01/M04 A3008 RMK A01 T00121035  RH  071%=      5-min Rain = 0
KWE1 170712Z 29003KT 01/M04 A3008 RMK A01 T00121035  RH  070%=      5-min Rain = 0
KWE1 170713Z 30003KT 01/M04 A3008 RMK A01 T00131035  RH  070%=      5-min Rain = 0
KWE1 170714Z 29003KT 01/M04 A3008 RMK A01 T00121036  RH  070%=      5-min Rain = 0
KWE1 170715Z 29003KT 01/M04 A3008 RMK A01 T00121036  RH  070%=      5-min Rain = 0
KWE1 170716Z 30003KT 01/M04 A3008 RMK A01 T00121036  RH  070%=      5-min Rain = 0
KWE1 170717Z 30003KT 01/M04 A3008 RMK A01 T00131036  RH  070%=      5-min Rain = 0
KWE1 170718Z 29003KT 01/M04 A3008 RMK A01 T00131036  RH  070%=      5-min Rain = 0
KWE1 170719Z 30003KT 01/M04 A3008 RMK A01 T00121036  RH  070%=      5-min Rain = 0
KWE1 170720Z 29003KT 01/M04 A3008 RMK A01 T00121036  RH  070%=      5-min Rain = 0
KWE1 170721Z 29003KT 01/M04 A3008 RMK A01 T00111036  RH  071%=      5-min Rain = 0
KWE1 170722Z 29004KT 01/M04 A3008 RMK A01 T00111036  RH  071%=      5-min Rain = 0
KWE1 170723Z 28004KT 01/M04 A3008 RMK A01 T00111036  RH  071%=      5-min Rain = 0
KWE1 170724Z 27004KT 01/M04 A3008 RMK A01 T00111036  RH  071%=      5-min Rain = 0
KWE1 170725Z 28004KT 01/M04 A3008 RMK A01 T00101037  RH  071%=      5-min Rain = 0
KWE1 170726Z 27004KT 01/M04 A3008 RMK A01 T00111036  RH  071%=      5-min Rain = 0
KWE1 170727Z 27005KT 01/M04 A3008 RMK A01 T00121037  RH  070%=      5-min Rain = 0
KWE1 170728Z 28005KT 01/M04 A3009 RMK A01 T00121038  RH  070%=      5-min Rain = 0
KWE1 170729Z 28005KT 01/M04 A3009 RMK A01 T00111038  RH  070%=      5-min Rain = 0
KWE1 170730Z 27004KT 01/M04 A3009 RMK A01 T00111038  RH  070%=      5-min Rain = 0
KWE1 170731Z 27005KT 01/M04 A3009 RMK A01 T00101039  RH  070%=      5-min Rain = 0
KWE1 170732Z 28005KT 01/M04 A3009 RMK A01 T00091039  RH  070%=      5-min Rain = 0
KWE1 170733Z 27004KT 01/M04 A3009 RMK A01 T00091038  RH  071%=      5-min Rain = 0
KWE1 170734Z 27005KT 01/M04 A3009 RMK A01 T00091038  RH  071%=      5-min Rain = 0
KWE1 170735Z 27005KT 01/M04 A3009 RMK A01 T00091037  RH  071%=      5-min Rain = 0
KWE1 170736Z 27004KT 01/M04 A3009 RMK A01 T00091038  RH  071%=      5-min Rain = 0
KWE1 170737Z 27004KT 01/M04 A3009 RMK A01 T00091037  RH  071%=      5-min Rain = 0
KWE1 170738Z 26004KT 01/M04 A3009 RMK A01 T00091037  RH  071%=      5-min Rain = 0
KWE1 170739Z 26004KT 01/M04 A3009 RMK A01 T00091037  RH  071%=      5-min Rain = 0
KWE1 170740Z 26005KT 01/M04 A3009 RMK A01 T00091037  RH  071%=      5-min Rain = 0
KWE1 170741Z 26004KT 01/M04 A3009 RMK A01 T00081038  RH  072%=      5-min Rain = 0
KWE1 170742Z 27004KT 01/M04 A3009 RMK A01 T00081038  RH  072%=      5-min Rain = 0
KWE1 170743Z 26004KT 01/M04 A3009 RMK A01 T00081037  RH  072%=      5-min Rain = 0
KWE1 170744Z 26005KT 01/M04 A3009 RMK A01 T00081038  RH  071%=      5-min Rain = 0
KWE1 170745Z 26004KT 01/M04 A3009 RMK A01 T00081038  RH  071%=      5-min Rain = 0
KWE1 170746Z 25004KT 01/M04 A3009 RMK A01 T00081038  RH  071%=      5-min Rain = 0
KWE1 170747Z 25004KT 01/M04 A3009 RMK A01 T00071039  RH  071%=      5-min Rain = 0
KWE1 170748Z 25005KT 01/M04 A3009 RMK A01 T00051040  RH  072%=      5-min Rain = 0
KWE1 170749Z 24005KT 00/M04 A3009 RMK A01 T00041040  RH  072%=      5-min Rain = 0
KWE1 170750Z 24004KT 00/M04 A3009 RMK A01 T00031041  RH  073%=      5-min Rain = 0
KWE1 170751Z 24005KT 00/M04 A3009 RMK A01 T00021041  RH  073%=      5-min Rain = 0
KWE1 170752Z 24004KT 00/M04 A3009 RMK A01 T00011040  RH  074%=      5-min Rain = 0
KWE1 170753Z 23004KT 00/M04 A3009 RMK A01 T00011040  RH  074%=      5-min Rain = 0
KWE1 170754Z 23004KT 00/M04 A3009 RMK A01 T00011040  RH  074%=      5-min Rain = 0
KWE1 170755Z 23004KT 00/M04 A3009 RMK A01 T00011040  RH  074%=      5-min Rain = 0
KWE1 170756Z 22004KT 00/M04 A3009 RMK A01 T00011039  RH  074%=      5-min Rain = 0
KWE1 170757Z 23004KT 00/M04 A3009 RMK A01 T00011040  RH  074%=      5-min Rain = 0
KWE1 170758Z 23005KT 00/04 A3009 RMK A01 T00000-40  RH  074%=      5-min Rain = 0
KWE1 170759Z 23005KT 00/04 A3009 RMK A01 T00000-40  RH  075%=      5-min Rain = 0
KWE1 170800Z 23004KT 00/04 A3009 RMK A01 T00000-40  RH  074%=      5-min Rain = 0
KWE1 170801Z 23005KT 00/04 A3009 RMK A01 T00000-40  RH  075%=      5-min Rain = 0
KWE1 170802Z 23005KT 00/04 A3009 RMK A01 T00-00-40  RH  075%=      5-min Rain = 0
KWE1 170803Z 24005KT M00/M04 A3009 RMK A01 T10011039  RH  075%=      5-min Rain = 0
KWE1 170804Z 24006KT M00/M04 A3009 RMK A01 T10011039  RH  075%=      5-min Rain = 0
KWE1 170805Z 25006KT M00/M04 A3009 RMK A01 T10011040  RH  075%=      5-min Rain = 0
KWE1 170806Z 25006KT 00/04 A301 RMK A01 T00-00-40  RH  075%=      5-min Rain = 0
KWE1 170807Z 25005KT 00/M04 A301 RMK A01 T00011039  RH  075%=      5-min Rain = 0
KWE1 170808Z 25006KT 00/M04 A301 RMK A01 T00021038  RH  074%=      5-min Rain = 0
KWE1 170809Z 25006KT 00/M04 A301 RMK A01 T00031038  RH  074%=      5-min Rain = 0
KWE1 170810Z 25005KT 00/M04 A301 RMK A01 T00041038  RH  073%=      5-min Rain = 0
KWE1 170811Z 25004KT 00/M04 A301 RMK A01 T00041039  RH  073%=      5-min Rain = 0
KWE1 170812Z 25004KT 00/M04 A301 RMK A01 T00041039  RH  073%=      5-min Rain = 0
KWE1 170813Z 24004KT 00/M04 A301 RMK A01 T00041039  RH  073%=      5-min Rain = 0
KWE1 170814Z 24005KT 00/M04 A301 RMK A01 T00041040  RH  073%=      5-min Rain = 0
KWE1 170815Z 24005KT 00/M04 A301 RMK A01 T00031040  RH  073%=      5-min Rain = 0
KWE1 170816Z 24004KT 00/M04 A301 RMK A01 T00031040  RH  073%=      5-min Rain = 0
KWE1 170817Z 24004KT 00/M04 A301 RMK A01 T00011040  RH  074%=      5-min Rain = 0
KWE1 170818Z 24004KT 00/M04 A301 RMK A01 T00011040  RH  074%=      5-min Rain = 0
KWE1 170819Z 25005KT 00/M04 A301 RMK A01 T00011040  RH  074%=      5-min Rain = 0
KWE1 170820Z 25004KT 00/M04 A301 RMK A01 T00011040  RH  074%=      5-min Rain = 0
KWE1 170821Z 26004KT 00/M04 A301 RMK A01 T00011040  RH  074%=      5-min Rain = 0
KWE1 170822Z 25005KT 00/M04 A301 RMK A01 T00011040  RH  074%=      5-min Rain = 0
KWE1 170823Z 25005KT 00/M04 A301 RMK A01 T00011040  RH  074%=      5-min Rain = 0
KWE1 170824Z 26005KT 00/M04 A301 RMK A01 T00021040  RH  074%=      5-min Rain = 0
KWE1 170825Z 25005KT 00/M04 A301 RMK A01 T00021040  RH  073%=      5-min Rain = 0
KWE1 170826Z 25005KT 00/M04 A301 RMK A01 T00021040  RH  073%=      5-min Rain = 0
KWE1 170827Z 25005KT 00/M04 A301 RMK A01 T00031040  RH  073%=      5-min Rain = 0
KWE1 170828Z 25005KT 00/M04 A301 RMK A01 T00031040  RH  073%=      5-min Rain = 0
KWE1 170829Z 25005KT 00/M04 A301 RMK A01 T00031040  RH  073%=      5-min Rain = 0
KWE1 170830Z 25005KT 00/M04 A301 RMK A01 T00031041  RH  072%=      5-min Rain = 0
KWE1 170831Z 25005KT 00/M04 A3009 RMK A01 T00031041  RH  072%=      5-min Rain = 0
KWE1 170832Z 25006KT 00/M04 A3009 RMK A01 T00031041  RH  072%=      5-min Rain = 0
KWE1 170833Z 25006KT 00/M04 A3009 RMK A01 T00031041  RH  073%=      5-min Rain = 0
KWE1 170834Z 25006KT 00/M04 A3009 RMK A01 T00031041  RH  072%=      5-min Rain = 0
KWE1 170835Z 25006KT 00/M04 A3009 RMK A01 T00031041  RH  072%=      5-min Rain = 0
KWE1 170836Z 25006KT 00/M04 A3009 RMK A01 T00031041  RH  072%=      5-min Rain = 0
KWE1 170837Z 25005KT 00/M04 A3009 RMK A01 T00031041  RH  072%=      5-min Rain = 0
KWE1 170838Z 25005KT 00/M04 A3009 RMK A01 T00041041  RH  072%=      5-min Rain = 0
KWE1 170839Z 25004KT 00/M04 A3009 RMK A01 T00041041  RH  072%=      5-min Rain = 0
KWE1 170840Z 25004KT 00/M04 A3009 RMK A01 T00031042  RH  072%=      5-min Rain = 0
KWE1 170841Z 25004KT 00/M04 A3009 RMK A01 T00021043  RH  072%=      5-min Rain = 0
KWE1 170842Z 25004KT 00/M04 A3009 RMK A01 T00011042  RH  073%=      5-min Rain = 0
KWE1 170843Z 25004KT 00/M04 A3009 RMK A01 T00011042  RH  073%=      5-min Rain = 0
KWE1 170844Z 25004KT 00/M04 A3009 RMK A01 T00011042  RH  073%=      5-min Rain = 0
KWE1 170845Z 25003KT 00/M04 A3009 RMK A01 T00011042  RH  073%=      5-min Rain = 0
KWE1 170846Z 25004KT 00/M04 A3009 RMK A01 T00011042  RH  073%=      5-min Rain = 0
KWE1 170847Z 26004KT 00/M04 A3009 RMK A01 T00011042  RH  073%=      5-min Rain = 0
KWE1 170848Z 26004KT 00/M04 A3009 RMK A01 T00011041  RH  073%=      5-min Rain = 0
KWE1 170849Z 26004KT 00/M04 A3009 RMK A01 T00021041  RH  073%=      5-min Rain = 0
KWE1 170850Z 26004KT 00/M04 A3009 RMK A01 T00021041  RH  072%=      5-min Rain = 0
KWE1 170851Z 26004KT 00/M04 A3009 RMK A01 T00021042  RH  072%=      5-min Rain = 0
KWE1 170852Z 25004KT 00/M04 A3009 RMK A01 T00031042  RH  072%=      5-min Rain = 0
KWE1 170853Z 25004KT 00/M04 A3009 RMK A01 T00041042  RH  072%=      5-min Rain = 0
KWE1 170854Z 26004KT 00/M04 A3009 RMK A01 T00041042  RH  071%=      5-min Rain = 0
KWE1 170855Z 25004KT 00/M04 A3009 RMK A01 T00041042  RH  071%=      5-min Rain = 0
KWE1 170856Z 25004KT 01/M04 A3009 RMK A01 T00051042  RH  071%=      5-min Rain = 0
KWE1 170857Z 25004KT 01/M04 A3009 RMK A01 T00051042  RH  071%=      5-min Rain = 0
KWE1 170858Z 25004KT 01/M04 A3009 RMK A01 T00051043  RH  071%=      5-min Rain = 0
KWE1 170859Z 25004KT 01/M04 A3009 RMK A01 T00051043  RH  071%=      5-min Rain = 0
KWE1 170900Z 25004KT 00/M04 A3009 RMK A01 T00041043  RH  071%=      5-min Rain = 0
KWE1 170901Z 24004KT 00/M04 A3009 RMK A01 T00031044  RH  071%=      5-min Rain = 0
KWE1 170902Z 24004KT 00/M04 A3009 RMK A01 T00021044  RH  072%=      5-min Rain = 0
KWE1 170903Z 24004KT 00/04 A3009 RMK A01 T00-00-43  RH  073%=      5-min Rain = 0
KWE1 170904Z 24004KT M00/M04 A3009 RMK A01 T10021043  RH  073%=      5-min Rain = 0
KWE1 170905Z 24004KT M00/M04 A3009 RMK A01 T10031044  RH  074%=      5-min Rain = 0
KWE1 170906Z 24004KT M01/M04 A3009 RMK A01 T10051044  RH  075%=      5-min Rain = 0
KWE1 170907Z 25004KT M01/M04 A3009 RMK A01 T10061043  RH  076%=      5-min Rain = 0
KWE1 170908Z 25005KT M01/M04 A3009 RMK A01 T10071044  RH  076%=      5-min Rain = 0
KWE1 170909Z 25004KT M01/M04 A3009 RMK A01 T10091044  RH  077%=      5-min Rain = 0
KWE1 170910Z 27003KT M01/M04 A3009 RMK A01 T10091043  RH  078%=      5-min Rain = 0
KWE1 170911Z 33002KT M01/M04 A301 RMK A01 T10081042  RH  078%=      5-min Rain = 0
KWE1 170912Z 32002KT M01/M04 A301 RMK A01 T10091043  RH  077%=      5-min Rain = 0
KWE1 170913Z 29002KT M01/M04 A301 RMK A01 T10091043  RH  078%=      5-min Rain = 0
KWE1 170914Z 30002KT M01/M04 A301 RMK A01 T10101043  RH  078%=      5-min Rain = 0
KWE1 170915Z 27002KT M01/M04 A301 RMK A01 T10101043  RH  078%=      5-min Rain = 0
KWE1 170916Z 27003KT M01/M04 A301 RMK A01 T10101044  RH  078%=      5-min Rain = 0
KWE1 170917Z 27003KT M01/M04 A301 RMK A01 T10081042  RH  078%=      5-min Rain = 0
KWE1 170918Z 26003KT M01/M04 A301 RMK A01 T10071041  RH  077%=      5-min Rain = 0
KWE1 170919Z 26004KT M00/M04 A301 RMK A01 T10041040  RH  077%=      5-min Rain = 0
KWE1 170920Z 26003KT M00/M04 A301 RMK A01 T10011039  RH  075%=      5-min Rain = 0
KWE1 170921Z 26003KT 00/M04 A301 RMK A01 T00011041  RH  074%=      5-min Rain = 0
KWE1 170922Z 25003KT 00/M04 A301 RMK A01 T00011043  RH  073%=      5-min Rain = 0
KWE1 170923Z 26003KT 00/04 A301 RMK A01 T00-00-44  RH  072%=      5-min Rain = 0
KWE1 170924Z 26003KT M00/M04 A301 RMK A01 T10011044  RH  073%=      5-min Rain = 0
KWE1 170925Z 27003KT 00/04 A301 RMK A01 T00000-44  RH  072%=      5-min Rain = 0
KWE1 170926Z 27003KT 00/M04 A301 RMK A01 T00011043  RH  072%=      5-min Rain = 0
KWE1 170927Z 28003KT 00/M04 A301 RMK A01 T00021043  RH  072%=      5-min Rain = 0
KWE1 170928Z 28003KT 00/M04 A301 RMK A01 T00031043  RH  072%=      5-min Rain = 0
KWE1 170929Z 28003KT 00/M04 A301 RMK A01 T00041043  RH  071%=      5-min Rain = 0
KWE1 170930Z 29003KT 01/M04 A301 RMK A01 T00051043  RH  070%=      5-min Rain = 0
KWE1 170931Z 30002KT 01/M04 A301 RMK A01 T00051044  RH  070%=      5-min Rain = 0
KWE1 170932Z 31002KT 00/M05 A301 RMK A01 T00011046  RH  070%=      5-min Rain = 0
KWE1 170933Z 33001KT M00/M05 A301 RMK A01 T10041048  RH  072%=      5-min Rain = 0
KWE1 170934Z 33001KT M01/M05 A301 RMK A01 T10051047  RH  073%=      5-min Rain = 0
KWE1 170935Z 34001KT M01/M05 A301 RMK A01 T10051045  RH  074%=      5-min Rain = 0
KWE1 170936Z 31001KT M01/M05 A301 RMK A01 T10051045  RH  074%=      5-min Rain = 0
KWE1 170937Z 31002KT M00/M04 A301 RMK A01 T10041044  RH  074%=      5-min Rain = 0
KWE1 170938Z 32001KT M00/M04 A301 RMK A01 T10031044  RH  074%=      5-min Rain = 0
KWE1 170939Z 31002KT M00/M05 A301 RMK A01 T10031045  RH  073%=      5-min Rain = 0
KWE1 170940Z 31001KT M00/M05 A301 RMK A01 T10031045  RH  073%=      5-min Rain = 0
KWE1 170941Z 31001KT M00/M05 A301 RMK A01 T10031045  RH  073%=      5-min Rain = 0
KWE1 170942Z 31002KT M00/M05 A3011 RMK A01 T10031045  RH  073%=      5-min Rain = 0
KWE1 170943Z 33001KT M00/M05 A3011 RMK A01 T10031045  RH  073%=      5-min Rain = 0
KWE1 170944Z 30002KT M00/M05 A3011 RMK A01 T10031045  RH  073%=      5-min Rain = 0
KWE1 170945Z 30002KT M00/M04 A3011 RMK A01 T10011043  RH  073%=      5-min Rain = 0
KWE1 170946Z 31001KT 00/M04 A3011 RMK A01 T00021041  RH  073%=      5-min Rain = 0
KWE1 170947Z 30001KT 00/M04 A3011 RMK A01 T00031042  RH  072%=      5-min Rain = 0
KWE1 170948Z 30001KT 00/M04 A3011 RMK A01 T00021044  RH  071%=      5-min Rain = 0
KWE1 170949Z 30001KT 00/05 A3011 RMK A01 T00000-45  RH  071%=      5-min Rain = 0
KWE1 170950Z 31001KT 00/05 A301 RMK A01 T00-00-45  RH  072%=      5-min Rain = 0
KWE1 170951Z 31001KT M00/M04 A301 RMK A01 T10011044  RH  072%=      5-min Rain = 0
KWE1 170952Z 30001KT M00/M04 A301 RMK A01 T10011044  RH  072%=      5-min Rain = 0
KWE1 170953Z 29001KT 00/04 A301 RMK A01 T00-00-44  RH  072%=      5-min Rain = 0
KWE1 170954Z 28001KT 00/M04 A301 RMK A01 T00011044  RH  072%=      5-min Rain = 0
KWE1 170955Z 28001KT 00/M04 A301 RMK A01 T00011044  RH  071%=      5-min Rain = 0
KWE1 170956Z 28001KT 00/M05 A301 RMK A01 T00011045  RH  071%=      5-min Rain = 0
KWE1 170957Z 28002KT 00/05 A301 RMK A01 T00000-45  RH  071%=      5-min Rain = 0
KWE1 170958Z 29002KT 00/M04 A301 RMK A01 T00011044  RH  072%=      5-min Rain = 0
KWE1 170959Z 29002KT 00/M04 A3011 RMK A01 T00031044  RH  071%=      5-min Rain = 0
KWE1 171000Z 28002KT 00/M04 A3011 RMK A01 T00031044  RH  071%=      5-min Rain = 0
KWE1 171001Z 29002KT 00/M04 A3011 RMK A01 T00041044  RH  070%=      5-min Rain = 0
KWE1 171002Z 28002KT 00/M05 A3011 RMK A01 T00031045  RH  070%=      5-min Rain = 0
KWE1 171003Z 28002KT 00/M04 A3011 RMK A01 T00041044  RH  070%=      5-min Rain = 0
KWE1 171004Z 28002KT 01/M04 A3011 RMK A01 T00051044  RH  070%=      5-min Rain = 0
KWE1 171005Z 28002KT 01/M04 A3011 RMK A01 T00051044  RH  069%=      5-min Rain = 0
KWE1 171006Z 29002KT 01/M05 A3011 RMK A01 T00061045  RH  069%=      5-min Rain = 0
KWE1 171007Z 29002KT 01/M05 A3011 RMK A01 T00061046  RH  068%=      5-min Rain = 0
KWE1 171008Z 29002KT 01/M05 A3011 RMK A01 T00061047  RH  068%=      5-min Rain = 0
KWE1 171009Z 29002KT 00/M05 A3011 RMK A01 T00041047  RH  068%=      5-min Rain = 0
KWE1 171010Z 28002KT 00/M05 A3011 RMK A01 T00041047  RH  069%=      5-min Rain = 0
KWE1 171011Z 29003KT 00/M05 A3011 RMK A01 T00041046  RH  069%=      5-min Rain = 0
KWE1 171012Z 29003KT 01/M05 A3011 RMK A01 T00051046  RH  069%=      5-min Rain = 0
KWE1 171013Z 29003KT 01/M05 A3011 RMK A01 T00061046  RH  068%=      5-min Rain = 0
KWE1 171014Z 28003KT 01/M05 A3011 RMK A01 T00061047  RH  068%=      5-min Rain = 0
KWE1 171015Z 28003KT 01/M05 A3011 RMK A01 T00051048  RH  068%=      5-min Rain = 0
KWE1 171016Z 27003KT 01/M05 A3011 RMK A01 T00051048  RH  068%=      5-min Rain = 0
KWE1 171017Z 27003KT 00/M05 A3011 RMK A01 T00041048  RH  068%=      5-min Rain = 0
KWE1 171018Z 28003KT 00/M05 A3011 RMK A01 T00041047  RH  069%=      5-min Rain = 0
KWE1 171019Z 28003KT 00/M05 A3011 RMK A01 T00041047  RH  069%=      5-min Rain = 0
KWE1 171020Z 27003KT 00/M05 A3011 RMK A01 T00041047  RH  069%=      5-min Rain = 0
KWE1 171021Z 26002KT 00/M05 A3011 RMK A01 T00041046  RH  069%=      5-min Rain = 0
KWE1 171022Z 25003KT 00/M05 A3011 RMK A01 T00021047  RH  070%=      5-min Rain = 0
KWE1 171023Z 26003KT 00/05 A3011 RMK A01 T00-00-46  RH  071%=      5-min Rain = 0
KWE1 171024Z 26003KT M00/M05 A3011 RMK A01 T10011045  RH  072%=      5-min Rain = 0
KWE1 171025Z 26003KT M00/M05 A3011 RMK A01 T10011045  RH  072%=      5-min Rain = 0
KWE1 171026Z 26003KT 00/04 A3011 RMK A01 T00000-44  RH  072%=      5-min Rain = 0
KWE1 171027Z 27003KT 00/M05 A3011 RMK A01 T00011045  RH  071%=      5-min Rain = 0
KWE1 171028Z 28004KT 00/M05 A3011 RMK A01 T00021045  RH  071%=      5-min Rain = 0
KWE1 171029Z 28004KT 00/M05 A3011 RMK A01 T00021046  RH  070%=      5-min Rain = 0
KWE1 171030Z 27004KT 00/M05 A3011 RMK A01 T00031046  RH  069%=      5-min Rain = 0
KWE1 171031Z 27004KT 00/M05 A3011 RMK A01 T00041047  RH  069%=      5-min Rain = 0
KWE1 171032Z 28004KT 01/M05 A3011 RMK A01 T00051047  RH  068%=      5-min Rain = 0
KWE1 171033Z 28005KT 01/M05 A3011 RMK A01 T00051047  RH  068%=      5-min Rain = 0
KWE1 171034Z 28005KT 00/M05 A3011 RMK A01 T00041048  RH  068%=      5-min Rain = 0
KWE1 171035Z 27005KT 00/M05 A3011 RMK A01 T00041048  RH  068%=      5-min Rain = 0
KWE1 171036Z 28005KT 00/M05 A3011 RMK A01 T00041048  RH  068%=      5-min Rain = 0
KWE1 171037Z 28005KT 00/M05 A3011 RMK A01 T00041048  RH  068%=      5-min Rain = 0
KWE1 171038Z 28004KT 00/M05 A3011 RMK A01 T00041048  RH  068%=      5-min Rain = 0
KWE1 171039Z 28005KT 00/M05 A3011 RMK A01 T00041048  RH  068%=      5-min Rain = 0
KWE1 171040Z 28004KT 00/M05 A3011 RMK A01 T00041049  RH  068%=      5-min Rain = 0
KWE1 171041Z 27004KT 00/M05 A3011 RMK A01 T00031049  RH  068%=      5-min Rain = 0
KWE1 171042Z 27004KT 00/M05 A3011 RMK A01 T00021049  RH  069%=      5-min Rain = 0
KWE1 171043Z 28004KT 00/M05 A3011 RMK A01 T00021049  RH  069%=      5-min Rain = 0
KWE1 171044Z 27004KT 00/M05 A3011 RMK A01 T00021048  RH  069%=      5-min Rain = 0
KWE1 171045Z 27005KT 00/M05 A3011 RMK A01 T00021048  RH  069%=      5-min Rain = 0
KWE1 171046Z 28005KT 00/M05 A3011 RMK A01 T00011048  RH  069%=      5-min Rain = 0
KWE1 171047Z 28005KT 00/M05 A3011 RMK A01 T00011049  RH  069%=      5-min Rain = 0
KWE1 171048Z 28005KT 00/05 A3011 RMK A01 T00000-48  RH  070%=      5-min Rain = 0
KWE1 171049Z 28005KT 00/05 A3011 RMK A01 T00000-48  RH  070%=      5-min Rain = 0
KWE1 171050Z 28005KT 00/05 A3011 RMK A01 T00-00-48  RH  070%=      5-min Rain = 0
KWE1 171051Z 28005KT M00/M05 A3011 RMK A01 T10011048  RH  071%=      5-min Rain = 0
KWE1 171052Z 28005KT M00/M05 A3011 RMK A01 T10011048  RH  071%=      5-min Rain = 0
KWE1 171053Z 28005KT M00/M05 A3011 RMK A01 T10021048  RH  071%=      5-min Rain = 0
KWE1 171054Z 29005KT M00/M05 A3011 RMK A01 T10021048  RH  071%=      5-min Rain = 0
KWE1 171055Z 29005KT M00/M05 A3011 RMK A01 T10031048  RH  072%=      5-min Rain = 0
KWE1 171056Z 29005KT M00/M05 A3011 RMK A01 T10041049  RH  072%=      5-min Rain = 0
KWE1 171057Z 29005KT M01/M05 A3011 RMK A01 T10051048  RH  073%=      5-min Rain = 0
KWE1 171058Z 29005KT M01/M05 A3012 RMK A01 T10051047  RH  073%=      5-min Rain = 0
KWE1 171059Z 29005KT M01/M05 A3012 RMK A01 T10051047  RH  073%=      5-min Rain = 0
KWE1 171100Z 29005KT M01/M05 A3012 RMK A01 T10051046  RH  074%=      5-min Rain = 0
KWE1 171101Z 29005KT M01/M05 A3012 RMK A01 T10051046  RH  074%=      5-min Rain = 0
KWE1 171102Z 29005KT M01/M05 A3012 RMK A01 T10061046  RH  074%=      5-min Rain = 0
KWE1 171103Z 30004KT M01/M05 A3012 RMK A01 T10061046  RH  074%=      5-min Rain = 0
KWE1 171104Z 29004KT M01/M05 A3012 RMK A01 T10061046  RH  074%=      5-min Rain = 0
KWE1 171105Z 29004KT M01/M05 A3012 RMK A01 T10061045  RH  075%=      5-min Rain = 0
KWE1 171106Z 29004KT M01/M05 A3012 RMK A01 T10051045  RH  075%=      5-min Rain = 0
KWE1 171107Z 29004KT M01/M05 A3012 RMK A01 T10061045  RH  075%=      5-min Rain = 0
KWE1 171108Z 29004KT M01/M05 A3012 RMK A01 T10051045  RH  075%=      5-min Rain = 0
KWE1 171109Z 29004KT M01/M04 A3012 RMK A01 T10051044  RH  075%=      5-min Rain = 0
KWE1 171110Z 29003KT M01/M04 A3012 RMK A01 T10051044  RH  075%=      5-min Rain = 0
KWE1 171111Z 29004KT M01/M04 A3012 RMK A01 T10051044  RH  075%=      5-min Rain = 0
KWE1 171112Z 29004KT M01/M04 A3012 RMK A01 T10051044  RH  075%=      5-min Rain = 0
KWE1 171113Z 29004KT M01/M05 A3012 RMK A01 T10051045  RH  075%=      5-min Rain = 0
KWE1 171114Z 30004KT M01/M04 A3012 RMK A01 T10051044  RH  075%=      5-min Rain = 0
KWE1 171115Z 30004KT M01/M04 A3012 RMK A01 T10051044  RH  075%=      5-min Rain = 0
KWE1 171116Z 29004KT M00/M04 A3012 RMK A01 T10041043  RH  075%=      5-min Rain = 0
KWE1 171117Z 30004KT M00/M04 A3012 RMK A01 T10041043  RH  075%=      5-min Rain = 0
KWE1 171118Z 30004KT M00/M04 A3012 RMK A01 T10041044  RH  074%=      5-min Rain = 0
KWE1 171119Z 30004KT M00/M04 A3012 RMK A01 T10041044  RH  074%=      5-min Rain = 0
KWE1 171120Z 30004KT M00/M04 A3012 RMK A01 T10021043  RH  074%=      5-min Rain = 0
KWE1 171121Z 30004KT M00/M04 A3012 RMK A01 T10021043  RH  074%=      5-min Rain = 0
KWE1 171122Z 31003KT M00/M04 A3012 RMK A01 T10021043  RH  074%=      5-min Rain = 0
KWE1 171123Z 31003KT M00/M04 A3012 RMK A01 T10021043  RH  074%=      5-min Rain = 0
KWE1 171124Z 31003KT M00/M04 A3012 RMK A01 T10021043  RH  074%=      5-min Rain = 0
KWE1 171125Z 31003KT M00/M04 A3012 RMK A01 T10031043  RH  074%=      5-min Rain = 0
KWE1 171126Z 31003KT M00/M04 A3012 RMK A01 T10031043  RH  074%=      5-min Rain = 0
KWE1 171127Z 30003KT M00/M04 A3012 RMK A01 T10031043  RH  074%=      5-min Rain = 0
KWE1 171128Z 31003KT M00/M04 A3012 RMK A01 T10031043  RH  074%=      5-min Rain = 0
KWE1 171129Z 30003KT M00/M04 A3012 RMK A01 T10031043  RH  074%=      5-min Rain = 0
KWE1 171130Z 31003KT M00/M04 A3012 RMK A01 T10031043  RH  074%=      5-min Rain = 0
KWE1 171131Z 30003KT M00/M04 A3012 RMK A01 T10031043  RH  075%=      5-min Rain = 0
KWE1 171132Z 31002KT M00/M04 A3012 RMK A01 T10031043  RH  075%=      5-min Rain = 0
KWE1 171133Z 31002KT M00/M04 A3012 RMK A01 T10041043  RH  075%=      5-min Rain = 0
KWE1 171134Z 31003KT M00/M04 A3012 RMK A01 T10041044  RH  075%=      5-min Rain = 0
KWE1 171135Z 30003KT M00/M04 A3012 RMK A01 T10041044  RH  075%=      5-min Rain = 0
KWE1 171136Z 31003KT M00/M04 A3013 RMK A01 T10041044  RH  075%=      5-min Rain = 0
KWE1 171137Z 30003KT M01/M04 A3013 RMK A01 T10051044  RH  075%=      5-min Rain = 0
KWE1 171138Z 31004KT M01/M04 A3013 RMK A01 T10051044  RH  075%=      5-min Rain = 0
KWE1 171139Z 31003KT M01/M04 A3012 RMK A01 T10051044  RH  075%=      5-min Rain = 0
KWE1 171140Z 31003KT M01/M04 A3013 RMK A01 T10051044  RH  075%=      5-min Rain = 0
KWE1 171141Z 31003KT M01/M04 A3012 RMK A01 T10051044  RH  075%=      5-min Rain = 0
KWE1 171142Z 31003KT M01/M04 A3012 RMK A01 T10051044  RH  075%=      5-min Rain = 0
KWE1 171143Z 31003KT M00/M04 A3012 RMK A01 T10041044  RH  075%=      5-min Rain = 0
KWE1 171144Z 31003KT M00/M04 A3012 RMK A01 T10041044  RH  075%=      5-min Rain = 0
KWE1 171145Z 31003KT M00/M04 A3012 RMK A01 T10041043  RH  075%=      5-min Rain = 0
KWE1 171146Z 31003KT M00/M04 A3012 RMK A01 T10041043  RH  075%=      5-min Rain = 0
KWE1 171147Z 30004KT M00/M04 A3012 RMK A01 T10041043  RH  075%=      5-min Rain = 0
KWE1 171148Z 31003KT M00/M04 A3012 RMK A01 T10031043  RH  075%=      5-min Rain = 0
KWE1 171149Z 30004KT M00/M04 A3012 RMK A01 T10031043  RH  074%=      5-min Rain = 0
KWE1 171150Z 30003KT M00/M04 A3012 RMK A01 T10031043  RH  074%=      5-min Rain = 0
KWE1 171151Z 30003KT M00/M04 A3012 RMK A01 T10031043  RH  074%=      5-min Rain = 0
KWE1 171152Z 30004KT M00/M04 A3012 RMK A01 T10021043  RH  074%=      5-min Rain = 0
KWE1 171153Z 30004KT M00/M04 A3012 RMK A01 T10021043  RH  074%=      5-min Rain = 0
KWE1 171154Z 30004KT M00/M04 A3013 RMK A01 T10031043  RH  074%=      5-min Rain = 0
KWE1 171155Z 30005KT M00/M04 A3013 RMK A01 T10021043  RH  074%=      5-min Rain = 0
KWE1 171156Z 29005KT M00/M04 A3013 RMK A01 T10021043  RH  074%=      5-min Rain = 0
KWE1 171157Z 29004KT M00/M04 A3013 RMK A01 T10021043  RH  074%=      5-min Rain = 0
KWE1 171158Z 29004KT M00/M04 A3013 RMK A01 T10021043  RH  074%=      5-min Rain = 0
KWE1 171159Z 29004KT M00/M04 A3013 RMK A01 T10011043  RH  074%=      5-min Rain = 0
KWE1 171200Z 29004KT M00/M04 A3013 RMK A01 T10011043  RH  073%=      5-min Rain = 0
KWE1 171201Z 30004KT M00/M04 A3013 RMK A01 T10011044  RH  073%=      5-min Rain = 0
KWE1 171202Z 30004KT M00/M04 A3013 RMK A01 T10011044  RH  073%=      5-min Rain = 0
KWE1 171203Z 30004KT M00/M04 A3013 RMK A01 T10011044  RH  073%=      5-min Rain = 0
KWE1 171204Z 30004KT M00/M04 A3013 RMK A01 T10011044  RH  073%=      5-min Rain = 0
KWE1 171205Z 30004KT M00/M04 A3013 RMK A01 T10011044  RH  073%=      5-min Rain = 0
KWE1 171206Z 30004KT M00/M04 A3013 RMK A01 T10011043  RH  073%=      5-min Rain = 0
KWE1 171207Z 30004KT M00/M04 A3013 RMK A01 T10011044  RH  073%=      5-min Rain = 0
KWE1 171208Z 30004KT M00/M04 A3013 RMK A01 T10011044  RH  073%=      5-min Rain = 0
KWE1 171209Z 30004KT M00/M04 A3013 RMK A01 T10021044  RH  073%=      5-min Rain = 0
KWE1 171210Z 30004KT M00/M04 A3013 RMK A01 T10021044  RH  073%=      5-min Rain = 0
KWE1 171211Z 30004KT M00/M04 A3013 RMK A01 T10021044  RH  073%=      5-min Rain = 0
KWE1 171212Z 30004KT M00/M04 A3014 RMK A01 T10021044  RH  073%=      5-min Rain = 0
KWE1 171213Z 30004KT M00/M04 A3014 RMK A01 T10021044  RH  074%=      5-min Rain = 0
KWE1 171214Z 30003KT M00/M04 A3014 RMK A01 T10021043  RH  074%=      5-min Rain = 0
KWE1 171215Z 30003KT M00/M04 A3014 RMK A01 T10021043  RH  074%=      5-min Rain = 0
KWE1 171216Z 30003KT M00/M04 A3014 RMK A01 T10021044  RH  074%=      5-min Rain = 0
KWE1 171217Z 30003KT M00/M04 A3014 RMK A01 T10031044  RH  074%=      5-min Rain = 0
KWE1 171218Z 30003KT M00/M04 A3014 RMK A01 T10031044  RH  074%=      5-min Rain = 0
KWE1 171219Z 30003KT M00/M04 A3014 RMK A01 T10031044  RH  074%=      5-min Rain = 0
KWE1 171220Z 30003KT M00/M04 A3014 RMK A01 T10031043  RH  074%=      5-min Rain = 0
KWE1 171221Z 30003KT M00/M04 A3014 RMK A01 T10021043  RH  074%=      5-min Rain = 0
KWE1 171222Z 30003KT M00/M04 A3014 RMK A01 T10021043  RH  074%=      5-min Rain = 0
KWE1 171223Z 30003KT M00/M04 A3014 RMK A01 T10021043  RH  074%=      5-min Rain = 0
KWE1 171224Z 30002KT M00/M04 A3014 RMK A01 T10021043  RH  074%=      5-min Rain = 0
KWE1 171225Z 30002KT M00/M04 A3014 RMK A01 T10021043  RH  074%=      5-min Rain = 0
KWE1 171226Z 30002KT M00/M04 A3014 RMK A01 T10021043  RH  074%=      5-min Rain = 0
KWE1 171227Z 30002KT M00/M04 A3014 RMK A01 T10021043  RH  074%=      5-min Rain = 0
KWE1 171228Z 30003KT M00/M04 A3014 RMK A01 T10021043  RH  074%=      5-min Rain = 0
KWE1 171229Z 30003KT M00/M04 A3014 RMK A01 T10021043  RH  074%=      5-min Rain = 0
KWE1 171230Z 30003KT M00/M04 A3014 RMK A01 T10021043  RH  074%=      5-min Rain = 0
KWE1 171231Z 30003KT M00/M04 A3014 RMK A01 T10011042  RH  074%=      5-min Rain = 0
KWE1 171232Z 30003KT M00/M04 A3014 RMK A01 T10011042  RH  074%=      5-min Rain = 0
KWE1 171233Z 30003KT 00/04 A3014 RMK A01 T00-00-42  RH  073%=      5-min Rain = 0
KWE1 171234Z 30003KT 00/04 A3014 RMK A01 T00-00-42  RH  073%=      5-min Rain = 0
KWE1 171235Z 30003KT 00/04 A3014 RMK A01 T00000-42  RH  073%=      5-min Rain = 0
KWE1 171236Z 30003KT 00/04 A3014 RMK A01 T00000-42  RH  073%=      5-min Rain = 0
KWE1 171237Z 30003KT 00/04 A3014 RMK A01 T00000-43  RH  073%=      5-min Rain = 0
KWE1 171238Z 30003KT 00/04 A3014 RMK A01 T00000-43  RH  073%=      5-min Rain = 0
KWE1 171239Z 30003KT 00/04 A3014 RMK A01 T00000-43  RH  073%=      5-min Rain = 0
KWE1 171240Z 30003KT 00/04 A3014 RMK A01 T00000-43  RH  073%=      5-min Rain = 0
KWE1 171241Z 30003KT 00/04 A3014 RMK A01 T00000-43  RH  073%=      5-min Rain = 0
KWE1 171242Z 30003KT 00/04 A3014 RMK A01 T00000-43  RH  073%=      5-min Rain = 0
KWE1 171243Z 30003KT 00/04 A3014 RMK A01 T00-00-42  RH  073%=      5-min Rain = 0
KWE1 171244Z 31003KT 00/04 A3014 RMK A01 T00-00-42  RH  073%=      5-min Rain = 0
KWE1 171245Z 31003KT 00/04 A3015 RMK A01 T00-00-42  RH  073%=      5-min Rain = 0
KWE1 171246Z 31003KT M00/M04 A3015 RMK A01 T10011042  RH  074%=      5-min Rain = 0
KWE1 171247Z 31003KT M00/M04 A3015 RMK A01 T10011042  RH  074%=      5-min Rain = 0
KWE1 171248Z 31003KT M00/M04 A3015 RMK A01 T10011042  RH  074%=      5-min Rain = 0
KWE1 171249Z 31003KT M00/M04 A3015 RMK A01 T10011042  RH  074%=      5-min Rain = 0
KWE1 171250Z 31003KT M00/M04 A3015 RMK A01 T10011042  RH  074%=      5-min Rain = 0
KWE1 171251Z 32003KT M00/M04 A3015 RMK A01 T10011041  RH  074%=      5-min Rain = 0
KWE1 171252Z 32003KT M00/M04 A3015 RMK A01 T10011041  RH  074%=      5-min Rain = 0
KWE1 171253Z 32003KT M00/M04 A3015 RMK A01 T10011041  RH  075%=      5-min Rain = 0
KWE1 171254Z 32003KT M00/M04 A3015 RMK A01 T10021041  RH  075%=      5-min Rain = 0
KWE1 171255Z 32003KT M00/M04 A3015 RMK A01 T10021041  RH  075%=      5-min Rain = 0
KWE1 171256Z 31003KT M00/M04 A3015 RMK A01 T10021041  RH  075%=      5-min Rain = 0
KWE1 171257Z 32003KT M00/M04 A3015 RMK A01 T10011041  RH  075%=      5-min Rain = 0
KWE1 171258Z 31003KT M00/M04 A3015 RMK A01 T10021041  RH  075%=      5-min Rain = 0
KWE1 171259Z 32003KT M00/M04 A3015 RMK A01 T10021041  RH  075%=      5-min Rain = 0
KWE1 171300Z 32003KT M00/M04 A3015 RMK A01 T10021041  RH  075%=      5-min Rain = 0
KWE1 171301Z 33003KT M00/M04 A3015 RMK A01 T10021041  RH  075%=      5-min Rain = 0
KWE1 171302Z 32002KT M00/M04 A3015 RMK A01 T10021041  RH  075%=      5-min Rain = 0
KWE1 171303Z 33002KT M00/M04 A3015 RMK A01 T10021042  RH  075%=      5-min Rain = 0
KWE1 171304Z 33002KT M00/M04 A3015 RMK A01 T10021042  RH  075%=      5-min Rain = 0
KWE1 171305Z 32002KT M00/M04 A3015 RMK A01 T10021042  RH  075%=      5-min Rain = 0
KWE1 171306Z 32002KT M00/M04 A3015 RMK A01 T10021042  RH  074%=      5-min Rain = 0
KWE1 171307Z 33002KT M00/M04 A3015 RMK A01 T10021042  RH  074%=      5-min Rain = 0
KWE1 171308Z 33002KT M00/M04 A3015 RMK A01 T10021042  RH  075%=      5-min Rain = 0
KWE1 171309Z 33002KT M00/M04 A3016 RMK A01 T10031042  RH  075%=      5-min Rain = 0
KWE1 171310Z 33002KT M00/M04 A3016 RMK A01 T10031042  RH  075%=      5-min Rain = 0
KWE1 171311Z 33003KT M00/M04 A3016 RMK A01 T10031042  RH  075%=      5-min Rain = 0
KWE1 171312Z 33003KT M00/M04 A3016 RMK A01 T10031042  RH  075%=      5-min Rain = 0
KWE1 171313Z 33003KT M00/M04 A3016 RMK A01 T10031042  RH  075%=      5-min Rain = 0
KWE1 171314Z 33003KT M00/M04 A3016 RMK A01 T10031042  RH  075%=      5-min Rain = 0
KWE1 171315Z 33003KT M00/M04 A3016 RMK A01 T10031041  RH  075%=      5-min Rain = 0
KWE1 171316Z 33003KT M00/M04 A3016 RMK A01 T10031041  RH  075%=      5-min Rain = 0
KWE1 171317Z 33004KT M00/M04 A3016 RMK A01 T10031042  RH  075%=      5-min Rain = 0
KWE1 171318Z 33003KT M00/M04 A3016 RMK A01 T10031042  RH  075%=      5-min Rain = 0
KWE1 171319Z 33003KT M00/M04 A3016 RMK A01 T10031042  RH  075%=      5-min Rain = 0
KWE1 171320Z 32003KT M00/M04 A3016 RMK A01 T10031041  RH  075%=      5-min Rain = 0
KWE1 171321Z 32003KT M00/M04 A3016 RMK A01 T10031041  RH  076%=      5-min Rain = 0
KWE1 171322Z 32002KT M00/M04 A3016 RMK A01 T10031041  RH  076%=      5-min Rain = 0
KWE1 171323Z 32002KT M00/M04 A3016 RMK A01 T10031041  RH  076%=      5-min Rain = 0
KWE1 171324Z 32002KT M00/M04 A3016 RMK A01 T10031041  RH  076%=      5-min Rain = 0
KWE1 171325Z 31002KT M00/M04 A3016 RMK A01 T10031041  RH  076%=      5-min Rain = 0
KWE1 171326Z 31001KT M00/M04 A3016 RMK A01 T10021041  RH  075%=      5-min Rain = 0
KWE1 171327Z 32001KT M00/M04 A3016 RMK A01 T10031041  RH  075%=      5-min Rain = 0
KWE1 171328Z 31002KT M00/M04 A3016 RMK A01 T10021041  RH  075%=      5-min Rain = 0
KWE1 171329Z 31001KT M00/M04 A3016 RMK A01 T10031041  RH  075%=      5-min Rain = 0
KWE1 171330Z 31001KT M00/M04 A3016 RMK A01 T10031041  RH  075%=      5-min Rain = 0
KWE1 171331Z 32002KT M00/M04 A3016 RMK A01 T10031041  RH  075%=      5-min Rain = 0
KWE1 171332Z 31003KT M00/M04 A3016 RMK A01 T10031041  RH  075%=      5-min Rain = 0
KWE1 171333Z 31002KT M00/M04 A3016 RMK A01 T10021040  RH  075%=      5-min Rain = 0
KWE1 171334Z 32003KT M00/M04 A3016 RMK A01 T10011039  RH  075%=      5-min Rain = 0
KWE1 171335Z 31003KT 00/04 A3016 RMK A01 T00-00-40  RH  075%=      5-min Rain = 0
KWE1 171336Z 31003KT 00/04 A3016 RMK A01 T00000-40  RH  074%=      5-min Rain = 0
KWE1 171337Z 31003KT 00/M04 A3016 RMK A01 T00011040  RH  074%=      5-min Rain = 0
KWE1 171338Z 31003KT 00/M04 A3016 RMK A01 T00011040  RH  074%=      5-min Rain = 0
KWE1 171339Z 31002KT 00/M04 A3016 RMK A01 T00011040  RH  074%=      5-min Rain = 0
KWE1 171340Z 31003KT 00/M04 A3016 RMK A01 T00011040  RH  074%=      5-min Rain = 0
KWE1 171341Z 31003KT 00/M04 A3016 RMK A01 T00011040  RH  074%=      5-min Rain = 0
KWE1 171342Z 31003KT 00/M04 A3016 RMK A01 T00011040  RH  074%=      5-min Rain = 0
KWE1 171343Z 31003KT 00/M04 A3016 RMK A01 T00011040  RH  074%=      5-min Rain = 0
KWE1 171344Z 31003KT 00/M04 A3017 RMK A01 T00011040  RH  074%=      5-min Rain = 0
KWE1 171345Z 31004KT 00/M04 A3017 RMK A01 T00021039  RH  074%=      5-min Rain = 0
KWE1 171346Z 31003KT 00/M04 A3017 RMK A01 T00031039  RH  074%=      5-min Rain = 0
KWE1 171347Z 31004KT 00/M04 A3017 RMK A01 T00031039  RH  073%=      5-min Rain = 0
KWE1 171348Z 31003KT 00/M04 A3017 RMK A01 T00031039  RH  073%=      5-min Rain = 0
KWE1 171349Z 31003KT 00/M04 A3017 RMK A01 T00031039  RH  073%=      5-min Rain = 0
KWE1 171350Z 30003KT 00/M04 A3017 RMK A01 T00031040  RH  073%=      5-min Rain = 0
KWE1 171351Z 30002KT 00/M04 A3017 RMK A01 T00031040  RH  073%=      5-min Rain = 0
KWE1 171352Z 30002KT 00/M04 A3017 RMK A01 T00031040  RH  073%=      5-min Rain = 0
KWE1 171353Z 30002KT 00/M04 A3017 RMK A01 T00031040  RH  073%=      5-min Rain = 0
KWE1 171354Z 30002KT 00/M04 A3017 RMK A01 T00031040  RH  073%=      5-min Rain = 0
KWE1 171355Z 30002KT 00/M04 A3017 RMK A01 T00031040  RH  073%=      5-min Rain = 0
KWE1 171356Z 30002KT 00/M04 A3017 RMK A01 T00031040  RH  073%=      5-min Rain = 0
KWE1 171357Z 31002KT 00/M04 A3017 RMK A01 T00031040  RH  073%=      5-min Rain = 0
KWE1 171358Z 30001KT 00/M04 A3017 RMK A01 T00041040  RH  073%=      5-min Rain = 0
KWE1 171359Z 29001KT 00/M04 A3017 RMK A01 T00041040  RH  073%=      5-min Rain = 0
KWE1 171400Z 29002KT 00/M04 A3016 RMK A01 T00041039  RH  072%=      5-min Rain = 0
KWE1 171401Z 29002KT 00/M04 A3016 RMK A01 T00041040  RH  072%=      5-min Rain = 0
KWE1 171402Z 29002KT 00/M04 A3016 RMK A01 T00041040  RH  072%=      5-min Rain = 0
KWE1 171403Z 29001KT 00/M04 A3016 RMK A01 T00041040  RH  072%=      5-min Rain = 0
KWE1 171404Z 28001KT 00/M04 A3016 RMK A01 T00041040  RH  072%=      5-min Rain = 0
KWE1 171405Z 30001KT 00/M04 A3016 RMK A01 T00041040  RH  072%=      5-min Rain = 0
KWE1 171406Z 29002KT 00/M04 A3016 RMK A01 T00041040  RH  072%=      5-min Rain = 0
KWE1 171407Z 30001KT 00/M04 A3016 RMK A01 T00041040  RH  072%=      5-min Rain = 0
KWE1 171408Z 29001KT 00/M04 A3016 RMK A01 T00041040  RH  072%=      5-min Rain = 0
KWE1 171409Z 29002KT 00/M04 A3017 RMK A01 T00041040  RH  072%=      5-min Rain = 0
KWE1 171410Z 30002KT 00/M04 A3017 RMK A01 T00041040  RH  072%=      5-min Rain = 0
KWE1 171411Z 30002KT 00/M04 A3017 RMK A01 T00041040  RH  072%=      5-min Rain = 0
KWE1 171412Z 30002KT 00/M04 A3017 RMK A01 T00041040  RH  072%=      5-min Rain = 0
KWE1 171413Z 31002KT 01/M04 A3017 RMK A01 T00051039  RH  072%=      5-min Rain = 0
KWE1 171414Z 30001KT 01/M04 A3017 RMK A01 T00051039  RH  072%=      5-min Rain = 0
KWE1 171415Z 29001KT 01/M04 A3017 RMK A01 T00061039  RH  072%=      5-min Rain = 0
KWE1 171416Z 29001KT 01/M04 A3017 RMK A01 T00061039  RH  072%=      5-min Rain = 0
KWE1 171417Z 27001KT 01/M04 A3017 RMK A01 T00061039  RH  072%=      5-min Rain = 0
KWE1 171418Z 28001KT 01/M04 A3017 RMK A01 T00061039  RH  072%=      5-min Rain = 0
KWE1 171419Z 29001KT 01/M04 A3017 RMK A01 T00061038  RH  072%=      5-min Rain = 0
KWE1 171420Z 28001KT 01/M04 A3017 RMK A01 T00061038  RH  073%=      5-min Rain = 0
KWE1 171421Z 30001KT 01/M04 A3017 RMK A01 T00061038  RH  073%=      5-min Rain = 0
KWE1 171422Z 30001KT 01/M04 A3017 RMK A01 T00061038  RH  073%=      5-min Rain = 0
KWE1 171423Z 29001KT 01/M04 A3017 RMK A01 T00061038  RH  073%=      5-min Rain = 0
KWE1 171424Z 30001KT 01/M04 A3017 RMK A01 T00061037  RH  073%=      5-min Rain = 0
KWE1 171425Z 31001KT 01/M04 A3018 RMK A01 T00061037  RH  073%=      5-min Rain = 0
KWE1 171426Z 31001KT 01/M04 A3018 RMK A01 T00061036  RH  073%=      5-min Rain = 0
KWE1 171427Z 31001KT 01/M04 A3018 RMK A01 T00061037  RH  073%=      5-min Rain = 0
KWE1 171428Z 30002KT 01/M04 A3018 RMK A01 T00061037  RH  073%=      5-min Rain = 0
KWE1 171429Z 30002KT 01/M04 A3018 RMK A01 T00061037  RH  073%=      5-min Rain = 0
KWE1 171430Z 30002KT 01/M04 A3018 RMK A01 T00061038  RH  072%=      5-min Rain = 0
KWE1 171431Z 30002KT 01/M04 A3018 RMK A01 T00071038  RH  072%=      5-min Rain = 0
KWE1 171432Z 30002KT 01/M04 A3018 RMK A01 T00071038  RH  072%=      5-min Rain = 0
KWE1 171433Z 30002KT 01/M04 A3018 RMK A01 T00071038  RH  072%=      5-min Rain = 0
KWE1 171434Z 31002KT 01/M04 A3018 RMK A01 T00071037  RH  072%=      5-min Rain = 0
KWE1 171435Z 31002KT 01/M04 A3018 RMK A01 T00071037  RH  072%=      5-min Rain = 0
KWE1 171436Z 31003KT 01/M04 A3018 RMK A01 T00071037  RH  072%=      5-min Rain = 0
KWE1 171437Z 31003KT 01/M04 A3018 RMK A01 T00081037  RH  072%=      5-min Rain = 0
KWE1 171438Z 31002KT 01/M04 A3018 RMK A01 T00081036  RH  072%=      5-min Rain = 0
KWE1 171439Z 30002KT 01/M04 A3018 RMK A01 T00091035  RH  072%=      5-min Rain = 0
KWE1 171440Z 31003KT 01/M04 A3018 RMK A01 T00101035  RH  072%=      5-min Rain = 0
KWE1 171441Z 30002KT 01/M03 A3018 RMK A01 T00111034  RH  072%=      5-min Rain = 0
KWE1 171442Z 30002KT 01/M03 A3018 RMK A01 T00121034  RH  072%=      5-min Rain = 0
KWE1 171443Z 30002KT 01/M03 A3018 RMK A01 T00121033  RH  072%=      5-min Rain = 0
KWE1 171444Z 30002KT 01/M03 A3018 RMK A01 T00121033  RH  072%=      5-min Rain = 0
KWE1 171445Z 30002KT 01/M03 A3018 RMK A01 T00131032  RH  072%=      5-min Rain = 0
KWE1 171446Z 30002KT 01/M03 A3018 RMK A01 T00131031  RH  072%=      5-min Rain = 0
KWE1 171447Z 30002KT 01/M03 A3019 RMK A01 T00141029  RH  073%=      5-min Rain = 0
KWE1 171448Z 31003KT 01/M03 A3019 RMK A01 T00141028  RH  073%=      5-min Rain = 0
KWE1 171449Z 31002KT 02/M03 A3019 RMK A01 T00151028  RH  073%=      5-min Rain = 0
KWE1 171450Z 31003KT 02/M03 A3019 RMK A01 T00151029  RH  073%=      5-min Rain = 0
KWE1 171451Z 31003KT 02/M03 A3019 RMK A01 T00161028  RH  073%=      5-min Rain = 0
KWE1 171452Z 31003KT 02/M03 A3019 RMK A01 T00161028  RH  073%=      5-min Rain = 0
KWE1 171453Z 31003KT 02/M03 A3019 RMK A01 T00161028  RH  072%=      5-min Rain = 0
KWE1 171454Z 31002KT 02/M03 A3019 RMK A01 T00171028  RH  072%=      5-min Rain = 0
KWE1 171455Z 31002KT 02/M03 A3019 RMK A01 T00171028  RH  072%=      5-min Rain = 0
KWE1 171456Z 31002KT 02/M03 A3019 RMK A01 T00171028  RH  072%=      5-min Rain = 0
KWE1 171457Z 30002KT 02/M03 A3019 RMK A01 T00181027  RH  072%=      5-min Rain = 0
KWE1 171458Z 30002KT 02/M03 A3019 RMK A01 T00181027  RH  072%=      5-min Rain = 0
KWE1 171459Z 30001KT 02/M03 A3019 RMK A01 T00181027  RH  072%=      5-min Rain = 0
KWE1 171500Z 29001KT 02/M03 A3019 RMK A01 T00191026  RH  072%=      5-min Rain = 0
KWE1 171501Z 30001KT 02/M03 A3019 RMK A01 T00191025  RH  072%=      5-min Rain = 0
KWE1 171502Z 30000KT 02/M02 A3019 RMK A01 T00201024  RH  073%=      5-min Rain = 0
KWE1 171503Z 30000KT 02/M02 A3019 RMK A01 T00211022  RH  073%=      5-min Rain = 0
KWE1 171504Z 32000KT 02/M02 A3019 RMK A01 T00221022  RH  073%=      5-min Rain = 0
KWE1 171505Z 31000KT 02/M02 A3019 RMK A01 T00231021  RH  073%=      5-min Rain = 0
KWE1 171506Z 34001KT 02/M02 A3019 RMK A01 T00241019  RH  073%=      5-min Rain = 0
KWE1 171507Z 32001KT 03/M02 A3019 RMK A01 T00251017  RH  074%=      5-min Rain = 0
KWE1 171508Z 34002KT 03/M02 A3019 RMK A01 T00261015  RH  074%=      5-min Rain = 0
KWE1 171509Z 33002KT 03/M02 A3019 RMK A01 T00281015  RH  073%=      5-min Rain = 0
KWE1 171510Z 34002KT 03/M02 A3019 RMK A01 T00301017  RH  071%=      5-min Rain = 0
KWE1 171511Z 33003KT 03/M02 A3019 RMK A01 T00321018  RH  070%=      5-min Rain = 0
KWE1 171512Z 33004KT 03/M02 A3019 RMK A01 T00341018  RH  069%=      5-min Rain = 0
KWE1 171513Z 32004KT 04/M02 A3019 RMK A01 T00351020  RH  067%=      5-min Rain = 0
KWE1 171514Z 32003KT 04/M02 A3019 RMK A01 T00361020  RH  067%=      5-min Rain = 0
KWE1 171515Z 32003KT 04/M02 A3019 RMK A01 T00361020  RH  067%=      5-min Rain = 0
KWE1 171516Z 32002KT 04/M02 A3019 RMK A01 T00371020  RH  066%=      5-min Rain = 0
KWE1 171517Z 33002KT 04/M02 A3019 RMK A01 T00381020  RH  066%=      5-min Rain = 0
KWE1 171518Z 32003KT 04/M02 A3019 RMK A01 T00381021  RH  065%=      5-min Rain = 0
KWE1 171519Z 32003KT 04/M02 A3019 RMK A01 T00391021  RH  065%=      5-min Rain = 0
KWE1 171520Z 32003KT 04/M02 A3019 RMK A01 T00391021  RH  065%=      5-min Rain = 0
KWE1 171521Z 33002KT 04/M02 A3019 RMK A01 T00401020  RH  065%=      5-min Rain = 0
KWE1 171522Z 32002KT 04/M02 A3019 RMK A01 T00401019  RH  065%=      5-min Rain = 0
KWE1 171523Z 33001KT 04/M02 A3019 RMK A01 T00411018  RH  066%=      5-min Rain = 0
KWE1 171524Z 34002KT 04/M02 A3019 RMK A01 T00421018  RH  065%=      5-min Rain = 0
KWE1 171525Z 34002KT 04/M02 A3019 RMK A01 T00421017  RH  065%=      5-min Rain = 0
KWE1 171526Z 34003KT 04/M02 A3019 RMK A01 T00431017  RH  065%=      5-min Rain = 0
KWE1 171527Z 34003KT 04/M02 A3019 RMK A01 T00431017  RH  065%=      5-min Rain = 0
KWE1 171528Z 34003KT 04/M02 A3019 RMK A01 T00441017  RH  064%=      5-min Rain = 0
KWE1 171529Z 34003KT 05/M02 A3019 RMK A01 T00451017  RH  064%=      5-min Rain = 0
KWE1 171530Z 34002KT 05/M02 A3019 RMK A01 T00461016  RH  064%=      5-min Rain = 0
KWE1 171531Z 33002KT 05/M02 A3019 RMK A01 T00461016  RH  064%=      5-min Rain = 0
KWE1 171532Z 35003KT 05/M02 A3019 RMK A01 T00461016  RH  064%=      5-min Rain = 0
KWE1 171533Z 33003KT 05/M02 A3019 RMK A01 T00471015  RH  064%=      5-min Rain = 0
KWE1 171534Z 35003KT 05/M02 A3019 RMK A01 T00471015  RH  064%=      5-min Rain = 0
KWE1 171535Z 33002KT 05/M01 A302 RMK A01 T00471014  RH  064%=      5-min Rain = 0
KWE1 171536Z 35003KT 05/M01 A302 RMK A01 T00481013  RH  065%=      5-min Rain = 0
KWE1 171537Z 34004KT 05/M01 A302 RMK A01 T00481014  RH  064%=      5-min Rain = 0
KWE1 171538Z 34004KT 05/M02 A302 RMK A01 T00481017  RH  063%=      5-min Rain = 0
KWE1 171539Z 34004KT 05/M02 A302 RMK A01 T00481016  RH  063%=      5-min Rain = 0
KWE1 171540Z 34004KT 05/M02 A302 RMK A01 T00481015  RH  064%=      5-min Rain = 0
KWE1 171541Z 34004KT 05/M02 A302 RMK A01 T00481015  RH  064%=      5-min Rain = 0
KWE1 171542Z 34004KT 05/M02 A3021 RMK A01 T00481015  RH  064%=      5-min Rain = 0
KWE1 171543Z 34004KT 05/M02 A3021 RMK A01 T00481015  RH  064%=      5-min Rain = 0
KWE1 171544Z 34005KT 05/M02 A3021 RMK A01 T00481016  RH  063%=      5-min Rain = 0
KWE1 171545Z 34004KT 05/M02 A3021 RMK A01 T00481017  RH  063%=      5-min Rain = 0
KWE1 171546Z 35004KT 05/M01 A3021 RMK A01 T00481014  RH  064%=      5-min Rain = 0
KWE1 171547Z 35005KT 05/M01 A3021 RMK A01 T00481014  RH  064%=      5-min Rain = 0
KWE1 171548Z 35005KT 05/M01 A3021 RMK A01 T00481014  RH  064%=      5-min Rain = 0
KWE1 171549Z 35005KT 05/M02 A3021 RMK A01 T00481017  RH  063%=      5-min Rain = 0
KWE1 171550Z 35004KT 05/M02 A3021 RMK A01 T00481019  RH  062%=      5-min Rain = 0
KWE1 171551Z 35004KT 05/M02 A3021 RMK A01 T00481019  RH  062%=      5-min Rain = 0
KWE1 171552Z 35005KT 05/M02 A3021 RMK A01 T00481019  RH  062%=      5-min Rain = 0
KWE1 171553Z 35004KT 05/M02 A3021 RMK A01 T00481017  RH  062%=      5-min Rain = 0
KWE1 171554Z 00005KT 05/M02 A3021 RMK A01 T00491016  RH  063%=      5-min Rain = 0
KWE1 171555Z 36005KT 05/M02 A3021 RMK A01 T00491018  RH  062%=      5-min Rain = 0
KWE1 171556Z 36004KT 05/M02 A3022 RMK A01 T00481019  RH  062%=      5-min Rain = 0
KWE1 171557Z 36004KT 05/M02 A3021 RMK A01 T00481018  RH  062%=      5-min Rain = 0
KWE1 171558Z 35004KT 05/M02 A3021 RMK A01 T00481017  RH  063%=      5-min Rain = 0
KWE1 171559Z 35004KT 05/M02 A3021 RMK A01 T00481018  RH  062%=      5-min Rain = 0
KWE1 171600Z 34004KT 05/M02 A3021 RMK A01 T00481019  RH  061%=      5-min Rain = 0
KWE1 171601Z 34003KT 05/M02 A3021 RMK A01 T00481020  RH  061%=      5-min Rain = 0
KWE1 171602Z 35003KT 05/M02 A3021 RMK A01 T00491015  RH  063%=      5-min Rain = 0
KWE1 171603Z 35003KT 05/M01 A3021 RMK A01 T00491013  RH  064%=      5-min Rain = 0
KWE1 171604Z 34003KT 05/M01 A3021 RMK A01 T00501012  RH  065%=      5-min Rain = 0
KWE1 171605Z 35003KT 05/M01 A3021 RMK A01 T00501010  RH  065%=      5-min Rain = 0
KWE1 171606Z 35004KT 05/M01 A3021 RMK A01 T00501011  RH  065%=      5-min Rain = 0
KWE1 171607Z 35004KT 05/M02 A3021 RMK A01 T00511015  RH  062%=      5-min Rain = 0
KWE1 171608Z 35005KT 05/M02 A3021 RMK A01 T00511015  RH  062%=      5-min Rain = 0
KWE1 171609Z 35004KT 05/M02 A3021 RMK A01 T00511015  RH  062%=      5-min Rain = 0
KWE1 171610Z 36005KT 05/M01 A3021 RMK A01 T00511014  RH  063%=      5-min Rain = 0
KWE1 171611Z 36004KT 05/M02 A3022 RMK A01 T00511016  RH  062%=      5-min Rain = 0
KWE1 171612Z 35004KT 05/M02 A3022 RMK A01 T00511015  RH  062%=      5-min Rain = 0
KWE1 171613Z 36004KT 05/M01 A3022 RMK A01 T00521013  RH  063%=      5-min Rain = 0
KWE1 171614Z 36005KT 05/M01 A3022 RMK A01 T00521014  RH  063%=      5-min Rain = 0
KWE1 171615Z 36005KT 05/M01 A3022 RMK A01 T00521014  RH  062%=      5-min Rain = 0
KWE1 171616Z 36004KT 05/M02 A3022 RMK A01 T00521015  RH  062%=      5-min Rain = 0
KWE1 171617Z 35004KT 05/M02 A3022 RMK A01 T00531015  RH  061%=      5-min Rain = 0
KWE1 171618Z 36003KT 05/M01 A3021 RMK A01 T00531013  RH  062%=      5-min Rain = 0
KWE1 171619Z 33002KT 05/M01 A3021 RMK A01 T00541010  RH  063%=      5-min Rain = 0
KWE1 171620Z 34003KT 05/M01 A3022 RMK A01 T00541012  RH  062%=      5-min Rain = 0
KWE1 171621Z 33003KT 06/M01 A3022 RMK A01 T00551014  RH  061%=      5-min Rain = 0
KWE1 171622Z 34004KT 06/M02 A3022 RMK A01 T00551015  RH  061%=      5-min Rain = 0
KWE1 171623Z 34002KT 06/M02 A3022 RMK A01 T00551018  RH  059%=      5-min Rain = 0
KWE1 171624Z 33003KT 06/M02 A3022 RMK A01 T00561018  RH  059%=      5-min Rain = 0
KWE1 171625Z 34003KT 06/M02 A3022 RMK A01 T00561017  RH  059%=      5-min Rain = 0
KWE1 171626Z 34003KT 06/M01 A3022 RMK A01 T00571013  RH  060%=      5-min Rain = 0
KWE1 171627Z 33003KT 06/M02 A3022 RMK A01 T00581016  RH  059%=      5-min Rain = 0
KWE1 171628Z 33002KT 06/M02 A3022 RMK A01 T00581019  RH  058%=      5-min Rain = 0
KWE1 171629Z 33003KT 06/M02 A3022 RMK A01 T00581019  RH  058%=      5-min Rain = 0
KWE1 171630Z 32002KT 06/M02 A3022 RMK A01 T00581019  RH  058%=      5-min Rain = 0
KWE1 171631Z 30002KT 06/M02 A3022 RMK A01 T00591016  RH  058%=      5-min Rain = 0
KWE1 171632Z 31002KT 06/M02 A3022 RMK A01 T00601015  RH  059%=      5-min Rain = 0
KWE1 171633Z 31002KT 06/M02 A3022 RMK A01 T00601018  RH  057%=      5-min Rain = 0
KWE1 171634Z 32003KT 06/M02 A3022 RMK A01 T00611016  RH  058%=      5-min Rain = 0
KWE1 171635Z 32002KT 06/M02 A3022 RMK A01 T00611017  RH  057%=      5-min Rain = 0
KWE1 171636Z 32003KT 06/M02 A3022 RMK A01 T00611016  RH  057%=      5-min Rain = 0
KWE1 171637Z 32002KT 06/M02 A3022 RMK A01 T00611017  RH  057%=      5-min Rain = 0
KWE1 171638Z 32003KT 06/M02 A3022 RMK A01 T00621018  RH  057%=      5-min Rain = 0
KWE1 171639Z 33003KT 06/M02 A3022 RMK A01 T00621017  RH  057%=      5-min Rain = 0
KWE1 171640Z 34002KT 06/M02 A3022 RMK A01 T00631017  RH  057%=      5-min Rain = 0
KWE1 171641Z 29002KT 06/M02 A3022 RMK A01 T00631016  RH  057%=      5-min Rain = 0
KWE1 171642Z 31002KT 06/M02 A3022 RMK A01 T00641017  RH  056%=      5-min Rain = 0
KWE1 171643Z 30003KT 06/M02 A3022 RMK A01 T00641015  RH  057%=      5-min Rain = 0
KWE1 171644Z 33003KT 06/M02 A3022 RMK A01 T00641017  RH  056%=      5-min Rain = 0
KWE1 171645Z 31004KT 06/M02 A3022 RMK A01 T00641016  RH  056%=      5-min Rain = 0
KWE1 171646Z 32003KT 07/M02 A3022 RMK A01 T00651017  RH  056%=      5-min Rain = 0
KWE1 171647Z 33003KT 07/M02 A3022 RMK A01 T00651017  RH  056%=      5-min Rain = 0
KWE1 171648Z 32003KT 07/M02 A3022 RMK A01 T00661016  RH  056%=      5-min Rain = 0
KWE1 171649Z 32002KT 07/M02 A3022 RMK A01 T00661017  RH  055%=      5-min Rain = 0
KWE1 171650Z 31003KT 07/M02 A3021 RMK A01 T00671018  RH  055%=      5-min Rain = 0
KWE1 171651Z 33002KT 07/M02 A3021 RMK A01 T00671020  RH  054%=      5-min Rain = 0
KWE1 171652Z 32003KT 07/M02 A3022 RMK A01 T00671018  RH  054%=      5-min Rain = 0
KWE1 171653Z 33003KT 07/M02 A3022 RMK A01 T00681019  RH  054%=      5-min Rain = 0
KWE1 171654Z 32003KT 07/M02 A3022 RMK A01 T00691017  RH  054%=      5-min Rain = 0
KWE1 171655Z 32004KT 07/M02 A3022 RMK A01 T00701016  RH  054%=      5-min Rain = 0
KWE1 171656Z 33003KT 07/M02 A3022 RMK A01 T00701018  RH  053%=      5-min Rain = 0
KWE1 171657Z 33003KT 07/M02 A3022 RMK A01 T00711018  RH  053%=      5-min Rain = 0
KWE1 171658Z 33003KT 07/M02 A3022 RMK A01 T00711017  RH  053%=      5-min Rain = 0
KWE1 171659Z 32003KT 07/M02 A3022 RMK A01 T00721017  RH  053%=      5-min Rain = 0
KWE1 171700Z 33003KT 07/M02 A3022 RMK A01 T00721018  RH  053%=      5-min Rain = 0
KWE1 171701Z 32003KT 07/M02 A3022 RMK A01 T00721017  RH  053%=      5-min Rain = 0
KWE1 171702Z 34002KT 07/M02 A3022 RMK A01 T00731015  RH  053%=      5-min Rain = 0
KWE1 171703Z 32003KT 08/M01 A3022 RMK A01 T00751013  RH  054%=      5-min Rain = 0
KWE1 171704Z 34004KT 08/M01 A3022 RMK A01 T00761014  RH  053%=      5-min Rain = 0
KWE1 171705Z 33004KT 08/M02 A3022 RMK A01 T00761018  RH  051%=      5-min Rain = 0
KWE1 171706Z 31003KT 08/M02 A3022 RMK A01 T00751017  RH  052%=      5-min Rain = 0
KWE1 171707Z 31003KT 08/M02 A3022 RMK A01 T00761017  RH  052%=      5-min Rain = 0
KWE1 171708Z 35004KT 08/M02 A3022 RMK A01 T00751019  RH  051%=      5-min Rain = 0
KWE1 171709Z 32003KT 08/M02 A3022 RMK A01 T00751019  RH  051%=      5-min Rain = 0
KWE1 171710Z 32003KT 08/M02 A3021 RMK A01 T00751017  RH  052%=      5-min Rain = 0
KWE1 171711Z 32004KT 08/M02 A3021 RMK A01 T00751018  RH  052%=      5-min Rain = 0
KWE1 171712Z 32003KT 08/M02 A3021 RMK A01 T00751020  RH  051%=      5-min Rain = 0
KWE1 171713Z 32003KT 08/M02 A3021 RMK A01 T00751020  RH  051%=      5-min Rain = 0
KWE1 171714Z 32004KT 08/M02 A3021 RMK A01 T00751019  RH  051%=      5-min Rain = 0
KWE1 171715Z 33002KT 08/M02 A3021 RMK A01 T00751020  RH  051%=      5-min Rain = 0
KWE1 171716Z 31003KT 08/M02 A3021 RMK A01 T00751019  RH  051%=      5-min Rain = 0
KWE1 171717Z 32002KT 08/M02 A3021 RMK A01 T00761019  RH  051%=      5-min Rain = 0
KWE1 171718Z 33002KT 08/M02 A3021 RMK A01 T00771017  RH  052%=      5-min Rain = 0
KWE1 171719Z 32002KT 08/M02 A3021 RMK A01 T00781019  RH  050%=      5-min Rain = 0
KWE1 171720Z 34003KT 08/M02 A3021 RMK A01 T00781019  RH  050%=      5-min Rain = 0
KWE1 171721Z 34003KT 08/M02 A3021 RMK A01 T00791021  RH  049%=      5-min Rain = 0
KWE1 171722Z 32003KT 08/M02 A3021 RMK A01 T00791019  RH  050%=      5-min Rain = 0
KWE1 171723Z 32003KT 08/M02 A3021 RMK A01 T00801017  RH  050%=      5-min Rain = 0
KWE1 171724Z 32004KT 08/M02 A3021 RMK A01 T00801019  RH  049%=      5-min Rain = 0
KWE1 171725Z 31003KT 08/M02 A3021 RMK A01 T00801021  RH  049%=      5-min Rain = 0
KWE1 171726Z 32003KT 08/M02 A3021 RMK A01 T00801021  RH  049%=      5-min Rain = 0
KWE1 171727Z 33004KT 08/M02 A3021 RMK A01 T00811020  RH  049%=      5-min Rain = 0
KWE1 171728Z 33004KT 08/M02 A3021 RMK A01 T00821019  RH  049%=      5-min Rain = 0
KWE1 171729Z 33004KT 08/M02 A3021 RMK A01 T00821021  RH  048%=      5-min Rain = 0
KWE1 171730Z 33003KT 08/M02 A3021 RMK A01 T00821022  RH  048%=      5-min Rain = 0
KWE1 171731Z 33003KT 08/M02 A3021 RMK A01 T00831020  RH  048%=      5-min Rain = 0
KWE1 171732Z 33004KT 08/M02 A3021 RMK A01 T00821021  RH  048%=      5-min Rain = 0
KWE1 171733Z 34005KT 08/M02 A3021 RMK A01 T00831023  RH  047%=      5-min Rain = 0
KWE1 171734Z 35004KT 08/M02 A3021 RMK A01 T00841022  RH  047%=      5-min Rain = 0
KWE1 171735Z 33003KT 08/M02 A3021 RMK A01 T00841020  RH  048%=      5-min Rain = 0
KWE1 171736Z 32003KT 09/M02 A3021 RMK A01 T00861016  RH  049%=      5-min Rain = 0
KWE1 171737Z 33004KT 09/M02 A3021 RMK A01 T00861019  RH  048%=      5-min Rain = 0
KWE1 171738Z 34004KT 09/M02 A3021 RMK A01 T00851023  RH  047%=      5-min Rain = 0
KWE1 171739Z 33003KT 08/M03 A302 RMK A01 T00841025  RH  046%=      5-min Rain = 0
KWE1 171740Z 32003KT 08/M02 A302 RMK A01 T00841022  RH  047%=      5-min Rain = 0
KWE1 171741Z 32004KT 09/M02 A302 RMK A01 T00851019  RH  048%=      5-min Rain = 0
KWE1 171742Z 32003KT 09/M02 A302 RMK A01 T00861020  RH  047%=      5-min Rain = 0
KWE1 171743Z 31002KT 09/M02 A302 RMK A01 T00871022  RH  046%=      5-min Rain = 0
KWE1 171744Z 31002KT 09/M02 A302 RMK A01 T00861021  RH  047%=      5-min Rain = 0
KWE1 171745Z 31004KT 09/M02 A302 RMK A01 T00881018  RH  048%=      5-min Rain = 0
KWE1 171746Z 32003KT 09/M02 A302 RMK A01 T00891017  RH  047%=      5-min Rain = 0
KWE1 171747Z 32005KT 09/M02 A302 RMK A01 T00901020  RH  046%=      5-min Rain = 0
KWE1 171748Z 34004KT 09/M02 A302 RMK A01 T00891023  RH  045%=      5-min Rain = 0
KWE1 171749Z 33004KT 09/M02 A302 RMK A01 T00891022  RH  046%=      5-min Rain = 0
KWE1 171750Z 33003KT 09/M02 A302 RMK A01 T00891020  RH  046%=      5-min Rain = 0
KWE1 171751Z 32004KT 09/M02 A302 RMK A01 T00891024  RH  045%=      5-min Rain = 0
KWE1 171752Z 36003KT 09/M02 A302 RMK A01 T00901020  RH  046%=      5-min Rain = 0
KWE1 171753Z 03004KT 09/M03 A302 RMK A01 T00911026  RH  044%=      5-min Rain = 0
KWE1 171754Z 02004KT 09/M03 A302 RMK A01 T00911031  RH  042%=      5-min Rain = 0
KWE1 171755Z 35003KT 09/M03 A3019 RMK A01 T00911027  RH  043%=      5-min Rain = 0
KWE1 171756Z 35003KT 09/M03 A3019 RMK A01 T00921026  RH  044%=      5-min Rain = 0
KWE1 171757Z 32003KT 09/M03 A3019 RMK A01 T00921025  RH  044%=      5-min Rain = 0
KWE1 171758Z 34003KT 09/M02 A3019 RMK A01 T00921024  RH  044%=      5-min Rain = 0
KWE1 171759Z 03003KT 09/M02 A3019 RMK A01 T00931024  RH  044%=      5-min Rain = 0
KWE1 171800Z 00005KT 09/M02 A3019 RMK A01 T00941023  RH  044%=      5-min Rain = 0
KWE1 171801Z 36004KT 10/M02 A3019 RMK A01 T00961019  RH  045%=      5-min Rain = 0
KWE1 171802Z 36004KT 10/M02 A3019 RMK A01 T00971021  RH  043%=      5-min Rain = 0
KWE1 171803Z 36003KT 10/M03 A3019 RMK A01 T00961028  RH  042%=      5-min Rain = 0
KWE1 171804Z 36002KT 10/M03 A3019 RMK A01 T00951028  RH  042%=      5-min Rain = 0
KWE1 171805Z 00004KT 09/M02 A3019 RMK A01 T00941024  RH  043%=      5-min Rain = 0
KWE1 171806Z 02005KT 10/M02 A3019 RMK A01 T00951023  RH  043%=      5-min Rain = 0
KWE1 171807Z 01005KT 10/M03 A3019 RMK A01 T00951026  RH  043%=      5-min Rain = 0
KWE1 171808Z 00005KT 09/M03 A3019 RMK A01 T00941028  RH  042%=      5-min Rain = 0
KWE1 171809Z 00004KT 09/M03 A3018 RMK A01 T00931027  RH  043%=      5-min Rain = 0
KWE1 171810Z 01002KT 09/M03 A3018 RMK A01 T00941027  RH  043%=      5-min Rain = 0
KWE1 171811Z 35004KT 09/M02 A3018 RMK A01 T00941024  RH  043%=      5-min Rain = 0
KWE1 171812Z 35004KT 10/M02 A3018 RMK A01 T00951023  RH  044%=      5-min Rain = 0
KWE1 171813Z 00004KT 10/M02 A3018 RMK A01 T00961020  RH  044%=      5-min Rain = 0
KWE1 171814Z 01002KT 10/M02 A3018 RMK A01 T00961024  RH  043%=      5-min Rain = 0
KWE1 171815Z 03002KT 10/M03 A3018 RMK A01 T00951026  RH  043%=      5-min Rain = 0
KWE1 171816Z 00001KT 10/M03 A3018 RMK A01 T00951026  RH  043%=      5-min Rain = 0
KWE1 171817Z 00002KT 10/M02 A3018 RMK A01 T00951024  RH  043%=      5-min Rain = 0
KWE1 171818Z 01002KT 10/M02 A3018 RMK A01 T00961023  RH  043%=      5-min Rain = 0
KWE1 171819Z 35002KT 10/M02 A3018 RMK A01 T00971021  RH  043%=      5-min Rain = 0
KWE1 171820Z 33003KT 10/M02 A3018 RMK A01 T00981022  RH  043%=      5-min Rain = 0
KWE1 171821Z 35003KT 10/M02 A3017 RMK A01 T00991021  RH  043%=      5-min Rain = 0
KWE1 171822Z 35005KT 10/M03 A3017 RMK A01 T00991025  RH  042%=      5-min Rain = 0
KWE1 171823Z 36005KT 10/M03 A3017 RMK A01 T00981028  RH  041%=      5-min Rain = 0
KWE1 171824Z 01004KT 10/M03 A3017 RMK A01 T00981028  RH  041%=      5-min Rain = 0
KWE1 171825Z 36004KT 10/M03 A3017 RMK A01 T00971029  RH  041%=      5-min Rain = 0
KWE1 171826Z 00003KT 10/M03 A3017 RMK A01 T00971029  RH  041%=      5-min Rain = 0
KWE1 171827Z 00002KT 10/M03 A3017 RMK A01 T00971029  RH  041%=      5-min Rain = 0
KWE1 171828Z 35003KT 10/M03 A3017 RMK A01 T00981027  RH  041%=      5-min Rain = 0
KWE1 171829Z 36001KT 10/M03 A3017 RMK A01 T00981027  RH  041%=      5-min Rain = 0
KWE1 171830Z 33003KT 10/M02 A3017 RMK A01 T00991023  RH  042%=      5-min Rain = 0
KWE1 171831Z 34003KT 10/M02 A3017 RMK A01 T01011022  RH  042%=      5-min Rain = 0
KWE1 171832Z 34003KT 10/M02 A3017 RMK A01 T01011023  RH  042%=      5-min Rain = 0
KWE1 171833Z 31002KT 10/M02 A3017 RMK A01 T01011022  RH  042%=      5-min Rain = 0
KWE1 171834Z 30002KT 10/M02 A3017 RMK A01 T01001024  RH  042%=      5-min Rain = 0
KWE1 171835Z 31002KT 10/M03 A3017 RMK A01 T01001025  RH  041%=      5-min Rain = 0
KWE1 171836Z 33002KT 10/M02 A3016 RMK A01 T01011023  RH  042%=      5-min Rain = 0
KWE1 171837Z 30003KT 10/M02 A3016 RMK A01 T01011022  RH  042%=      5-min Rain = 0
KWE1 171838Z 30003KT 10/M02 A3016 RMK A01 T01011024  RH  041%=      5-min Rain = 0
KWE1 171839Z 33002KT 10/M03 A3016 RMK A01 T01001026  RH  041%=      5-min Rain = 0
KWE1 171840Z 34002KT 10/M03 A3016 RMK A01 T01001026  RH  041%=      5-min Rain = 0
KWE1 171841Z 34004KT 10/M03 A3016 RMK A01 T01001031  RH  039%=      5-min Rain = 0
KWE1 171842Z 34003KT 10/M04 A3016 RMK A01 T01011035  RH  038%=      5-min Rain = 0
KWE1 171843Z 33002KT 10/M03 A3016 RMK A01 T01011031  RH  039%=      5-min Rain = 0
KWE1 171844Z 34002KT 10/M03 A3016 RMK A01 T01011031  RH  039%=      5-min Rain = 0
KWE1 171845Z 34003KT 10/M03 A3016 RMK A01 T01031026  RH  040%=      5-min Rain = 0
KWE1 171846Z 34002KT 10/M03 A3016 RMK A01 T01031029  RH  040%=      5-min Rain = 0
KWE1 171847Z 03002KT 10/M03 A3016 RMK A01 T01021027  RH  040%=      5-min Rain = 0
KWE1 171848Z 33002KT 10/M03 A3016 RMK A01 T01031025  RH  041%=      5-min Rain = 0
KWE1 171849Z 33002KT 10/M03 A3015 RMK A01 T01041032  RH  038%=      5-min Rain = 0
KWE1 171850Z 02003KT 10/M03 A3015 RMK A01 T01041026  RH  040%=      5-min Rain = 0
KWE1 171851Z 01003KT 10/M03 A3015 RMK A01 T01041028  RH  039%=      5-min Rain = 0
KWE1 171852Z 35003KT 10/M03 A3015 RMK A01 T01041031  RH  039%=      5-min Rain = 0
KWE1 171853Z 35004KT 10/M03 A3015 RMK A01 T01041030  RH  039%=      5-min Rain = 0
KWE1 171854Z 35003KT 10/M03 A3015 RMK A01 T01041032  RH  038%=      5-min Rain = 0
KWE1 171855Z 34003KT 10/M03 A3015 RMK A01 T01041031  RH  039%=      5-min Rain = 0
KWE1 171856Z 35003KT 10/M03 A3015 RMK A01 T01041033  RH  038%=      5-min Rain = 0
KWE1 171857Z 00004KT 11/M03 A3015 RMK A01 T01051027  RH  039%=      5-min Rain = 0
KWE1 171858Z 35005KT 11/M03 A3015 RMK A01 T01061030  RH  038%=      5-min Rain = 0
KWE1 171859Z 36006KT 11/M03 A3015 RMK A01 T01071027  RH  039%=      5-min Rain = 0
KWE1 171900Z 01006KT 11/M03 A3015 RMK A01 T01081033  RH  037%=      5-min Rain = 0
KWE1 171901Z 01005KT 11/M03 A3015 RMK A01 T01071032  RH  038%=      5-min Rain = 0
KWE1 171902Z 02006KT 11/M03 A3015 RMK A01 T01061033  RH  037%=      5-min Rain = 0
KWE1 171903Z 01005KT 11/M04 A3015 RMK A01 T01051038  RH  036%=      5-min Rain = 0
KWE1 171904Z 01004KT 11/M04 A3015 RMK A01 T01051038  RH  036%=      5-min Rain = 0
KWE1 171905Z 03004KT 10/M04 A3015 RMK A01 T01041038  RH  037%=      5-min Rain = 0
KWE1 171906Z 02004KT 10/M03 A3015 RMK A01 T01041034  RH  038%=      5-min Rain = 0
KWE1 171907Z 01004KT 11/M03 A3015 RMK A01 T01061032  RH  038%=      5-min Rain = 0
KWE1 171908Z 02004KT 11/M03 A3015 RMK A01 T01071032  RH  038%=      5-min Rain = 0
KWE1 171909Z 02004KT 11/M04 A3015 RMK A01 T01071036  RH  036%=      5-min Rain = 0
KWE1 171910Z 01004KT 11/M04 A3015 RMK A01 T01071037  RH  036%=      5-min Rain = 0
KWE1 171911Z 00005KT 11/M04 A3015 RMK A01 T01071035  RH  037%=      5-min Rain = 0
KWE1 171912Z 01005KT 11/M03 A3015 RMK A01 T01071032  RH  038%=      5-min Rain = 0
KWE1 171913Z 35004KT 11/M04 A3015 RMK A01 T01081035  RH  036%=      5-min Rain = 0
KWE1 171914Z 34004KT 11/M04 A3015 RMK A01 T01071036  RH  036%=      5-min Rain = 0
KWE1 171915Z 33004KT 11/M03 A3015 RMK A01 T01081034  RH  037%=      5-min Rain = 0
KWE1 171916Z 34004KT 11/M04 A3015 RMK A01 T01091037  RH  036%=      5-min Rain = 0
KWE1 171917Z 34005KT 11/M04 A3015 RMK A01 T01091035  RH  036%=      5-min Rain = 0
KWE1 171918Z 36006KT 11/M04 A3015 RMK A01 T01091038  RH  035%=      5-min Rain = 0
KWE1 171919Z 34006KT 11/M04 A3015 RMK A01 T01091038  RH  036%=      5-min Rain = 0
KWE1 171920Z 36005KT 11/M04 A3015 RMK A01 T01091035  RH  036%=      5-min Rain = 0
KWE1 171921Z 01005KT 11/M03 A3015 RMK A01 T01091033  RH  037%=      5-min Rain = 0
KWE1 171922Z 02004KT 11/M03 A3015 RMK A01 T01091034  RH  036%=      5-min Rain = 0
KWE1 171923Z 00006KT 11/M03 A3015 RMK A01 T01091034  RH  037%=      5-min Rain = 0
KWE1 171924Z 35004KT 11/M04 A3015 RMK A01 T01091035  RH  036%=      5-min Rain = 0
KWE1 171925Z 34003KT 11/M04 A3015 RMK A01 T01091036  RH  036%=      5-min Rain = 0
KWE1 171926Z 36004KT 11/M03 A3015 RMK A01 T01091034  RH  036%=      5-min Rain = 0
KWE1 171927Z 03005KT 11/M03 A3014 RMK A01 T01101032  RH  037%=      5-min Rain = 0
KWE1 171928Z 35005KT 11/M03 A3014 RMK A01 T01111032  RH  037%=      5-min Rain = 0
KWE1 171929Z 34004KT 11/M03 A3014 RMK A01 T01111033  RH  037%=      5-min Rain = 0
KWE1 171930Z 34006KT 11/M03 A3014 RMK A01 T01111033  RH  036%=      5-min Rain = 0
KWE1 171931Z 01005KT 11/M03 A3014 RMK A01 T01111033  RH  036%=      5-min Rain = 0
KWE1 171932Z 04005KT 11/M04 A3014 RMK A01 T01111035  RH  036%=      5-min Rain = 0
KWE1 171933Z 03006KT 11/M03 A3014 RMK A01 T01111032  RH  036%=      5-min Rain = 0
KWE1 171934Z 05004KT 11/M03 A3014 RMK A01 T01111034  RH  036%=      5-min Rain = 0
KWE1 171935Z 04005KT 11/M04 A3014 RMK A01 T01101035  RH  036%=      5-min Rain = 0
KWE1 171936Z 04004KT 11/M04 A3014 RMK A01 T01101035  RH  036%=      5-min Rain = 0
KWE1 171937Z 04004KT 11/M04 A3014 RMK A01 T01101036  RH  036%=      5-min Rain = 0
KWE1 171938Z 02003KT 11/M04 A3014 RMK A01 T01101036  RH  036%=      5-min Rain = 0
KWE1 171939Z 03003KT 11/M03 A3014 RMK A01 T01101033  RH  036%=      5-min Rain = 0
KWE1 171940Z 00005KT 11/M03 A3014 RMK A01 T01121031  RH  037%=      5-min Rain = 0
KWE1 171941Z 34006KT 11/M04 A3014 RMK A01 T01131035  RH  035%=      5-min Rain = 0
KWE1 171942Z 00006KT 11/M03 A3014 RMK A01 T01141033  RH  035%=      5-min Rain = 0
KWE1 171943Z 00006KT 12/M04 A3014 RMK A01 T01151036  RH  035%=      5-min Rain = 0
KWE1 171944Z 01006KT 11/M04 A3014 RMK A01 T01141038  RH  034%=      5-min Rain = 0
KWE1 171945Z 00005KT 11/M04 A3014 RMK A01 T01131037  RH  035%=      5-min Rain = 0
KWE1 171946Z 00004KT 11/M04 A3014 RMK A01 T01131038  RH  035%=      5-min Rain = 0
KWE1 171947Z 35005KT 11/M04 A3014 RMK A01 T01131037  RH  035%=      5-min Rain = 0
KWE1 171948Z 34004KT 11/M04 A3013 RMK A01 T01141037  RH  035%=      5-min Rain = 0
KWE1 171949Z 32005KT 12/M03 A3013 RMK A01 T01151034  RH  035%=      5-min Rain = 0
KWE1 171950Z 33004KT 12/M04 A3013 RMK A01 T01161037  RH  034%=      5-min Rain = 0
KWE1 171951Z 35004KT 12/M03 A3013 RMK A01 T01151033  RH  035%=      5-min Rain = 0
KWE1 171952Z 36004KT 12/M03 A3013 RMK A01 T01171028  RH  036%=      5-min Rain = 0
KWE1 171953Z 02005KT 12/M03 A3013 RMK A01 T01191031  RH  035%=      5-min Rain = 0
KWE1 171954Z 01003KT 12/M04 A3013 RMK A01 T01171041  RH  033%=      5-min Rain = 0
KWE1 171955Z 02005KT 12/M04 A3013 RMK A01 T01161039  RH  034%=      5-min Rain = 0
KWE1 171956Z 03004KT 12/M04 A3013 RMK A01 T01151040  RH  033%=      5-min Rain = 0
KWE1 171957Z 04003KT 12/M04 A3013 RMK A01 T01151038  RH  034%=      5-min Rain = 0
KWE1 171958Z 07002KT 12/M04 A3013 RMK A01 T01151042  RH  033%=      5-min Rain = 0
KWE1 171959Z 06002KT 12/M04 A3013 RMK A01 T01151041  RH  033%=      5-min Rain = 0
KWE1 172000Z 34002KT 12/M04 A3013 RMK A01 T01151042  RH  033%=      5-min Rain = 0
KWE1 172001Z 34004KT 12/M04 A3013 RMK A01 T01151039  RH  034%=      5-min Rain = 0
KWE1 172002Z 01002KT 12/M04 A3012 RMK A01 T01151038  RH  034%=      5-min Rain = 0
KWE1 172003Z 30002KT 12/M04 A3012 RMK A01 T01151037  RH  034%=      5-min Rain = 0
KWE1 172004Z 31003KT 12/M03 A3012 RMK A01 T01171032  RH  035%=      5-min Rain = 0
KWE1 172005Z 30005KT 12/M03 A3012 RMK A01 T01211030  RH  035%=      5-min Rain = 0
KWE1 172006Z 32004KT 12/M04 A3013 RMK A01 T01211040  RH  032%=      5-min Rain = 0
KWE1 172007Z 34005KT 12/M04 A3013 RMK A01 T01191041  RH  032%=      5-min Rain = 0
KWE1 172008Z 33007KT 12/M04 A3013 RMK A01 T01191040  RH  033%=      5-min Rain = 0
KWE1 172009Z 34005KT 12/M04 A3013 RMK A01 T01191038  RH  033%=      5-min Rain = 0
KWE1 172010Z 33003KT 12/M04 A3013 RMK A01 T01191036  RH  034%=      5-min Rain = 0
KWE1 172011Z 31004KT 12/M03 A3013 RMK A01 T01201034  RH  034%=      5-min Rain = 0
KWE1 172012Z 31003KT 12/M04 A3013 RMK A01 T01191037  RH  033%=      5-min Rain = 0
KWE1 172013Z 30004KT 12/M04 A3013 RMK A01 T01181035  RH  034%=      5-min Rain = 0
KWE1 172014Z 29003KT 12/M04 A3013 RMK A01 T01181037  RH  034%=      5-min Rain = 0
KWE1 172015Z 29003KT 12/M03 A3012 RMK A01 T01191034  RH  034%=      5-min Rain = 0
KWE1 172016Z 31004KT 12/M04 A3012 RMK A01 T01191038  RH  033%=      5-min Rain = 0
KWE1 172017Z 32003KT 12/M04 A3012 RMK A01 T01191043  RH  032%=      5-min Rain = 0
KWE1 172018Z 33003KT 12/M04 A3012 RMK A01 T01171044  RH  032%=      5-min Rain = 0
KWE1 172019Z 33003KT 12/M05 A3012 RMK A01 T01161045  RH  032%=      5-min Rain = 0
KWE1 172020Z 35002KT 12/M04 A3012 RMK A01 T01171044  RH  032%=      5-min Rain = 0
KWE1 172021Z 29001KT 12/M04 A3012 RMK A01 T01171044  RH  032%=      5-min Rain = 0
KWE1 172022Z 33002KT 12/M04 A3012 RMK A01 T01191038  RH  033%=      5-min Rain = 0
KWE1 172023Z 36004KT 12/M04 A3013 RMK A01 T01211037  RH  033%=      5-min Rain = 0
KWE1 172024Z 34004KT 12/M04 A3012 RMK A01 T01211040  RH  032%=      5-min Rain = 0
KWE1 172025Z 33004KT 12/M04 A3012 RMK A01 T01211040  RH  032%=      5-min Rain = 0
KWE1 172026Z 33004KT 12/M05 A3012 RMK A01 T01211045  RH  031%=      5-min Rain = 0
KWE1 172027Z 31004KT 12/M05 A3012 RMK A01 T01211047  RH  031%=      5-min Rain = 0
KWE1 172028Z 33006KT 12/M04 A3012 RMK A01 T01211044  RH  031%=      5-min Rain = 0
KWE1 172029Z 34005KT 12/M04 A3012 RMK A01 T01221041  RH  032%=      5-min Rain = 0
KWE1 172030Z 34006KT 12/M04 A3012 RMK A01 T01221041  RH  032%=      5-min Rain = 0
KWE1 172031Z 32004KT 12/M04 A3013 RMK A01 T01231041  RH  032%=      5-min Rain = 0
KWE1 172032Z 32003KT 12/M04 A3012 RMK A01 T01231040  RH  032%=      5-min Rain = 0
KWE1 172033Z 30004KT 12/M04 A3012 RMK A01 T01231042  RH  031%=      5-min Rain = 0
KWE1 172034Z 29004KT 12/M04 A3012 RMK A01 T01231042  RH  032%=      5-min Rain = 0
KWE1 172035Z 29003KT 12/M05 A3012 RMK A01 T01221045  RH  031%=      5-min Rain = 0
KWE1 172036Z 32002KT 12/M04 A3012 RMK A01 T01211042  RH  032%=      5-min Rain = 0
KWE1 172037Z 36001KT 12/M04 A3012 RMK A01 T01221040  RH  032%=      5-min Rain = 0
KWE1 172038Z 02000KT 12/M04 A3012 RMK A01 T01231044  RH  031%=      5-min Rain = 0
KWE1 172039Z 32002KT 13/M04 A3012 RMK A01 T01251040  RH  031%=      5-min Rain = 0
KWE1 172040Z 34003KT 13/M04 A3012 RMK A01 T01261038  RH  032%=      5-min Rain = 0
KWE1 172041Z 36003KT 13/M04 A3012 RMK A01 T01261043  RH  031%=      5-min Rain = 0
KWE1 172042Z 35002KT 13/M05 A3012 RMK A01 T01251046  RH  030%=      5-min Rain = 0
KWE1 172043Z 33001KT 13/M04 A3012 RMK A01 T01251043  RH  031%=      5-min Rain = 0
KWE1 172044Z 07000KT 13/M04 A3012 RMK A01 T01261040  RH  031%=      5-min Rain = 0
KWE1 172045Z 06003KT 13/M04 A3012 RMK A01 T01261039  RH  031%=      5-min Rain = 0
KWE1 172046Z 07005KT 13/M04 A3012 RMK A01 T01261039  RH  032%=      5-min Rain = 0
KWE1 172047Z 07003KT 12/M05 A3012 RMK A01 T01241045  RH  031%=      5-min Rain = 0
KWE1 172048Z 07002KT 12/M05 A3012 RMK A01 T01221045  RH  031%=      5-min Rain = 0
KWE1 172049Z 03002KT 12/M04 A3012 RMK A01 T01221042  RH  032%=      5-min Rain = 0
KWE1 172050Z 02004KT 12/M04 A3012 RMK A01 T01221039  RH  032%=      5-min Rain = 0
KWE1 172051Z 03005KT 12/M04 A3012 RMK A01 T01241041  RH  031%=      5-min Rain = 0
KWE1 172052Z 03003KT 12/M04 A3012 RMK A01 T01231043  RH  031%=      5-min Rain = 0
KWE1 172053Z 04005KT 12/M04 A3012 RMK A01 T01221044  RH  031%=      5-min Rain = 0
KWE1 172054Z 05005KT 12/M04 A3011 RMK A01 T01211044  RH  031%=      5-min Rain = 0
KWE1 172055Z 05003KT 12/M04 A3011 RMK A01 T01221044  RH  031%=      5-min Rain = 0
KWE1 172056Z 04003KT 12/M04 A3011 RMK A01 T01221042  RH  031%=      5-min Rain = 0
KWE1 172057Z 01004KT 12/M05 A3011 RMK A01 T01231046  RH  030%=      5-min Rain = 0
KWE1 172058Z 36003KT 12/M05 A3011 RMK A01 T01221050  RH  030%=      5-min Rain = 0
KWE1 172059Z 01001KT 12/M04 A3011 RMK A01 T01221044  RH  031%=      5-min Rain = 0
KWE1 172100Z 07003KT 12/M04 A3011 RMK A01 T01241035  RH  033%=      5-min Rain = 0
KWE1 172101Z 09002KT 13/M04 A3011 RMK A01 T01251040  RH  031%=      5-min Rain = 0
KWE1 172102Z 09001KT 13/M04 A3011 RMK A01 T01251041  RH  031%=      5-min Rain = 0
KWE1 172103Z 08002KT 13/M04 A3011 RMK A01 T01261041  RH  031%=      5-min Rain = 0
KWE1 172104Z 12001KT 13/M04 A3011 RMK A01 T01261043  RH  030%=      5-min Rain = 0
KWE1 172105Z 30002KT 13/M04 A3011 RMK A01 T01271040  RH  031%=      5-min Rain = 0
KWE1 172106Z 31004KT 13/M05 A3011 RMK A01 T01281047  RH  029%=      5-min Rain = 0
KWE1 172107Z 35007KT 13/M05 A3012 RMK A01 T01281050  RH  029%=      5-min Rain = 0
KWE1 172108Z 00006KT 13/M05 A3012 RMK A01 T01271050  RH  029%=      5-min Rain = 0
KWE1 172109Z 01006KT 13/M05 A3012 RMK A01 T01271046  RH  030%=      5-min Rain = 0
KWE1 172110Z 02007KT 13/M04 A3012 RMK A01 T01261044  RH  030%=      5-min Rain = 0
KWE1 172111Z 03006KT 13/M05 A3012 RMK A01 T01251053  RH  028%=      5-min Rain = 0
KWE1 172112Z 01005KT 12/M06 A3012 RMK A01 T01231056  RH  028%=      5-min Rain = 0
KWE1 172113Z 00005KT 12/M05 A3012 RMK A01 T01231054  RH  029%=      5-min Rain = 0
KWE1 172114Z 35004KT 12/M05 A3012 RMK A01 T01221054  RH  029%=      5-min Rain = 0
KWE1 172115Z 00004KT 12/M06 A3012 RMK A01 T01231055  RH  028%=      5-min Rain = 0
KWE1 172116Z 35005KT 12/M06 A3012 RMK A01 T01231055  RH  028%=      5-min Rain = 0
KWE1 172117Z 01004KT 12/M06 A3012 RMK A01 T01231058  RH  028%=      5-min Rain = 0
KWE1 172118Z 35004KT 12/M06 A3012 RMK A01 T01221056  RH  028%=      5-min Rain = 0
KWE1 172119Z 33003KT 12/M06 A3012 RMK A01 T01221056  RH  028%=      5-min Rain = 0
KWE1 172120Z 34002KT 12/M06 A3012 RMK A01 T01221061  RH  027%=      5-min Rain = 0
KWE1 172121Z 34002KT 12/M06 A3012 RMK A01 T01221060  RH  028%=      5-min Rain = 0
KWE1 172122Z 35002KT 12/M06 A3012 RMK A01 T01221059  RH  028%=      5-min Rain = 0
KWE1 172123Z 36000KT 12/M06 A3012 RMK A01 T01221057  RH  028%=      5-min Rain = 0
KWE1 172124Z 33000KT 12/M05 A3012 RMK A01 T01231050  RH  030%=      5-min Rain = 0
KWE1 172125Z 35002KT 13/M05 A3012 RMK A01 T01251052  RH  029%=      5-min Rain = 0
KWE1 172126Z 02005KT 13/M05 A3012 RMK A01 T01251053  RH  028%=      5-min Rain = 0
KWE1 172127Z 02006KT 13/M06 A3012 RMK A01 T01251056  RH  028%=      5-min Rain = 0
KWE1 172128Z 02005KT 12/M05 A3012 RMK A01 T01241054  RH  029%=      5-min Rain = 0
KWE1 172129Z 01005KT 12/M05 A3012 RMK A01 T01241051  RH  029%=      5-min Rain = 0
KWE1 172130Z 01003KT 12/M05 A3012 RMK A01 T01241053  RH  029%=      5-min Rain = 0
KWE1 172131Z 01002KT 12/M06 A3012 RMK A01 T01241058  RH  028%=      5-min Rain = 0
KWE1 172132Z 03005KT 12/M06 A3012 RMK A01 T01231055  RH  028%=      5-min Rain = 0
KWE1 172133Z 04003KT 12/M06 A3012 RMK A01 T01231059  RH  028%=      5-min Rain = 0
KWE1 172134Z 07003KT 12/M06 A3012 RMK A01 T01221061  RH  027%=      5-min Rain = 0
KWE1 172135Z 07003KT 12/M06 A3012 RMK A01 T01221056  RH  028%=      5-min Rain = 0
KWE1 172136Z 06004KT 12/M05 A3012 RMK A01 T01241050  RH  029%=      5-min Rain = 0
KWE1 172137Z 09002KT 12/M06 A3012 RMK A01 T01241058  RH  028%=      5-min Rain = 0
KWE1 172138Z 07001KT 12/M05 A3011 RMK A01 T01241052  RH  029%=      5-min Rain = 0
KWE1 172139Z 05001KT 12/M05 A3011 RMK A01 T01241054  RH  028%=      5-min Rain = 0
KWE1 172140Z 34002KT 13/M05 A3011 RMK A01 T01251049  RH  029%=      5-min Rain = 0
KWE1 172141Z 30002KT 13/M05 A3011 RMK A01 T01271045  RH  030%=      5-min Rain = 0
KWE1 172142Z 30004KT 13/M05 A3011 RMK A01 T01281050  RH  029%=      5-min Rain = 0
KWE1 172143Z 29004KT 13/M05 A3011 RMK A01 T01271052  RH  028%=      5-min Rain = 0
KWE1 172144Z 31004KT 13/M05 A3011 RMK A01 T01261053  RH  028%=      5-min Rain = 0
KWE1 172145Z 31002KT 13/M06 A3011 RMK A01 T01251055  RH  028%=      5-min Rain = 0
KWE1 172146Z 34003KT 13/M05 A3011 RMK A01 T01251053  RH  029%=      5-min Rain = 0
KWE1 172147Z 33003KT 13/M05 A3011 RMK A01 T01251054  RH  028%=      5-min Rain = 0
KWE1 172148Z 32002KT 12/M06 A3011 RMK A01 T01241057  RH  028%=      5-min Rain = 0
KWE1 172149Z 32002KT 12/M06 A3011 RMK A01 T01241055  RH  028%=      5-min Rain = 0
KWE1 172150Z 32001KT 12/M06 A3011 RMK A01 T01241056  RH  028%=      5-min Rain = 0
KWE1 172151Z 33001KT 12/M06 A3011 RMK A01 T01241056  RH  028%=      5-min Rain = 0
KWE1 172152Z 27000KT 13/M05 A3011 RMK A01 T01251054  RH  028%=      5-min Rain = 0
KWE1 172153Z 00000KT 13/M06 A3011 RMK A01 T01261055  RH  028%=      5-min Rain = 0
KWE1 172154Z 27000KT 13/M05 A3011 RMK A01 T01291053  RH  028%=      5-min Rain = 0
KWE1 172155Z 30001KT 13/M05 A3011 RMK A01 T01321047  RH  028%=      5-min Rain = 0
KWE1 172156Z 31002KT 13/M05 A3011 RMK A01 T01331050  RH  027%=      5-min Rain = 0
KWE1 172157Z 30002KT 13/M05 A3011 RMK A01 T01321051  RH  028%=      5-min Rain = 0
KWE1 172158Z 30001KT 13/M06 A3011 RMK A01 T01301055  RH  027%=      5-min Rain = 0
KWE1 172159Z 27002KT 13/M05 A3011 RMK A01 T01281052  RH  028%=      5-min Rain = 0
KWE1 172200Z 26002KT 13/M05 A3011 RMK A01 T01281052  RH  028%=      5-min Rain = 0
KWE1 172201Z 27002KT 13/M06 A3011 RMK A01 T01271056  RH  028%=      5-min Rain = 0
KWE1 172202Z 27002KT 13/M06 A3011 RMK A01 T01261055  RH  028%=      5-min Rain = 0
KWE1 172203Z 26002KT 13/M05 A3011 RMK A01 T01271053  RH  028%=      5-min Rain = 0
KWE1 172204Z 30003KT 13/M05 A3011 RMK A01 T01271051  RH  028%=      5-min Rain = 0
KWE1 172205Z 25002KT 13/M05 A3011 RMK A01 T01271053  RH  028%=      5-min Rain = 0
KWE1 172206Z 25002KT 13/M05 A3011 RMK A01 T01271052  RH  028%=      5-min Rain = 0
KWE1 172207Z 27002KT 13/M05 A3011 RMK A01 T01281047  RH  029%=      5-min Rain = 0
KWE1 172208Z 29003KT 13/M05 A3011 RMK A01 T01291047  RH  029%=      5-min Rain = 0
KWE1 172209Z 31003KT 13/M05 A3011 RMK A01 T01291050  RH  028%=      5-min Rain = 0
KWE1 172210Z 32003KT 13/M05 A3011 RMK A01 T01271054  RH  028%=      5-min Rain = 0
KWE1 172211Z 31004KT 13/M05 A3011 RMK A01 T01261051  RH  029%=      5-min Rain = 0
KWE1 172212Z 31003KT 13/M05 A3011 RMK A01 T01261050  RH  029%=      5-min Rain = 0
KWE1 172213Z 29002KT 13/M05 A3011 RMK A01 T01261054  RH  028%=      5-min Rain = 0
KWE1 172214Z 29003KT 13/M05 A3011 RMK A01 T01261051  RH  029%=      5-min Rain = 0
KWE1 172215Z 29004KT 13/M05 A3011 RMK A01 T01261052  RH  029%=      5-min Rain = 0
KWE1 172216Z 30003KT 13/M05 A3011 RMK A01 T01261052  RH  029%=      5-min Rain = 0
KWE1 172217Z 29002KT 13/M05 A3011 RMK A01 T01251052  RH  029%=      5-min Rain = 0
KWE1 172218Z 28002KT 13/M05 A3011 RMK A01 T01261052  RH  029%=      5-min Rain = 0
KWE1 172219Z 28003KT 13/M05 A3011 RMK A01 T01261049  RH  029%=      5-min Rain = 0
KWE1 172220Z 27002KT 13/M05 A3011 RMK A01 T01261051  RH  029%=      5-min Rain = 0
KWE1 172221Z 27002KT 13/M05 A3011 RMK A01 T01271053  RH  028%=      5-min Rain = 0
KWE1 172222Z 26002KT 13/M05 A3011 RMK A01 T01271051  RH  028%=      5-min Rain = 0
KWE1 172223Z 27002KT 13/M05 A3011 RMK A01 T01281050  RH  029%=      5-min Rain = 0
KWE1 172224Z 26002KT 13/M05 A3011 RMK A01 T01281051  RH  028%=      5-min Rain = 0
KWE1 172225Z 26002KT 13/M05 A3011 RMK A01 T01281050  RH  028%=      5-min Rain = 0
KWE1 172226Z 25002KT 13/M05 A3011 RMK A01 T01281052  RH  028%=      5-min Rain = 0
KWE1 172227Z 25001KT 13/M05 A3011 RMK A01 T01281053  RH  028%=      5-min Rain = 0
KWE1 172228Z 22001KT 13/M05 A3011 RMK A01 T01281049  RH  029%=      5-min Rain = 0
KWE1 172229Z 25001KT 13/M05 A3011 RMK A01 T01301047  RH  029%=      5-min Rain = 0
KWE1 172230Z 27002KT 13/M05 A301 RMK A01 T01311050  RH  028%=      5-min Rain = 0
KWE1 172231Z 28002KT 13/M05 A301 RMK A01 T01311051  RH  028%=      5-min Rain = 0
KWE1 172232Z 26001KT 13/M05 A301 RMK A01 T01291053  RH  028%=      5-min Rain = 0
KWE1 172233Z 27002KT 13/M05 A301 RMK A01 T01281050  RH  029%=      5-min Rain = 0
KWE1 172234Z 31002KT 13/M04 A301 RMK A01 T01301042  RH  030%=      5-min Rain = 0
KWE1 172235Z 32003KT 13/M05 A301 RMK A01 T01301045  RH  029%=      5-min Rain = 0
KWE1 172236Z 30002KT 13/M05 A301 RMK A01 T01281047  RH  029%=      5-min Rain = 0
KWE1 172237Z 27002KT 13/M05 A301 RMK A01 T01281049  RH  029%=      5-min Rain = 0
KWE1 172238Z 26002KT 13/M05 A301 RMK A01 T01271050  RH  029%=      5-min Rain = 0
KWE1 172239Z 27002KT 13/M05 A301 RMK A01 T01271052  RH  028%=      5-min Rain = 0
KWE1 172240Z 27004KT 13/M05 A301 RMK A01 T01281052  RH  028%=      5-min Rain = 0
KWE1 172241Z 28003KT 13/M05 A301 RMK A01 T01271051  RH  029%=      5-min Rain = 0
KWE1 172242Z 27003KT 13/M05 A301 RMK A01 T01261051  RH  029%=      5-min Rain = 0
KWE1 172243Z 27002KT 13/M05 A301 RMK A01 T01261051  RH  029%=      5-min Rain = 0
KWE1 172244Z 27002KT 13/M05 A301 RMK A01 T01251051  RH  029%=      5-min Rain = 0
KWE1 172245Z 28002KT 13/M05 A301 RMK A01 T01251051  RH  029%=      5-min Rain = 0
KWE1 172246Z 28001KT 13/M05 A301 RMK A01 T01251052  RH  029%=      5-min Rain = 0
KWE1 172247Z 27001KT 13/M05 A301 RMK A01 T01271052  RH  028%=      5-min Rain = 0
KWE1 172248Z 22001KT 13/M05 A301 RMK A01 T01271053  RH  028%=      5-min Rain = 0
KWE1 172249Z 24000KT 13/M05 A301 RMK A01 T01271050  RH  029%=      5-min Rain = 0
KWE1 172250Z 32001KT 13/M05 A301 RMK A01 T01281046  RH  029%=      5-min Rain = 0
KWE1 172251Z 32002KT 13/M05 A301 RMK A01 T01291050  RH  028%=      5-min Rain = 0
KWE1 172252Z 32002KT 13/M05 A301 RMK A01 T01281054  RH  028%=      5-min Rain = 0
KWE1 172253Z 32003KT 13/M06 A301 RMK A01 T01271056  RH  028%=      5-min Rain = 0
KWE1 172254Z 33003KT 13/M06 A301 RMK A01 T01251055  RH  028%=      5-min Rain = 0
KWE1 172255Z 33003KT 12/M05 A301 RMK A01 T01241052  RH  029%=      5-min Rain = 0
KWE1 172256Z 34003KT 12/M05 A301 RMK A01 T01241052  RH  029%=      5-min Rain = 0
KWE1 172257Z 32003KT 12/M05 A301 RMK A01 T01231053  RH  029%=      5-min Rain = 0
KWE1 172258Z 32003KT 12/M05 A301 RMK A01 T01231053  RH  029%=      5-min Rain = 0
KWE1 172259Z 30003KT 12/M05 A301 RMK A01 T01221054  RH  029%=      5-min Rain = 0
KWE1 172300Z 31002KT 12/M05 A301 RMK A01 T01221053  RH  029%=      5-min Rain = 0
KWE1 172301Z 32002KT 12/M05 A301 RMK A01 T01231051  RH  029%=      5-min Rain = 0
KWE1 172302Z 31002KT 12/M05 A301 RMK A01 T01231051  RH  029%=      5-min Rain = 0
KWE1 172303Z 30003KT 12/M05 A301 RMK A01 T01241050  RH  029%=      5-min Rain = 0
KWE1 172304Z 30002KT 12/M05 A301 RMK A01 T01231053  RH  029%=      5-min Rain = 0
KWE1 172305Z 30002KT 12/M05 A301 RMK A01 T01231053  RH  029%=      5-min Rain = 0
KWE1 172306Z 30002KT 12/M05 A301 RMK A01 T01231051  RH  029%=      5-min Rain = 0
KWE1 172307Z 30002KT 12/M05 A301 RMK A01 T01231053  RH  029%=      5-min Rain = 0
KWE1 172308Z 29001KT 12/M05 A301 RMK A01 T01231054  RH  029%=      5-min Rain = 0
KWE1 172309Z 28000KT 12/M06 A301 RMK A01 T01231057  RH  028%=      5-min Rain = 0
KWE1 172310Z 25000KT 12/M06 A301 RMK A01 T01241057  RH  028%=      5-min Rain = 0
KWE1 172311Z 00000KT 13/M06 A301 RMK A01 T01251056  RH  028%=      5-min Rain = 0
KWE1 172312Z 00000KT 13/M05 A301 RMK A01 T01261052  RH  029%=      5-min Rain = 0
KWE1 172313Z 28000KT 13/M05 A301 RMK A01 T01261051  RH  029%=      5-min Rain = 0
KWE1 172314Z 26000KT 13/M05 A301 RMK A01 T01261054  RH  028%=      5-min Rain = 0
KWE1 172315Z 26000KT 13/M06 A301 RMK A01 T01261058  RH  027%=      5-min Rain = 0
KWE1 172316Z 00000KT 13/M06 A301 RMK A01 T01271058  RH  027%=      5-min Rain = 0
KWE1 172317Z 00000KT 13/M06 A301 RMK A01 T01271057  RH  027%=      5-min Rain = 0
KWE1 172318Z 00000KT 13/M06 A301 RMK A01 T01271056  RH  027%=      5-min Rain = 0
KWE1 172319Z 00000KT 13/M06 A301 RMK A01 T01271055  RH  028%=      5-min Rain = 0
KWE1 172320Z 00000KT 13/M05 A301 RMK A01 T01271051  RH  029%=      5-min Rain = 0
KWE1 172321Z 20001KT 13/M06 A301 RMK A01 T01261056  RH  028%=      5-min Rain = 0
KWE1 172322Z 20001KT 12/M05 A301 RMK A01 T01241053  RH  029%=      5-min Rain = 0
KWE1 172323Z 19001KT 12/M05 A301 RMK A01 T01231053  RH  029%=      5-min Rain = 0
KWE1 172324Z 18002KT 12/M05 A301 RMK A01 T01221052  RH  029%=      5-min Rain = 0
KWE1 172325Z 21002KT 12/M05 A301 RMK A01 T01201048  RH  031%=      5-min Rain = 0
KWE1 172326Z 20002KT 12/M04 A301 RMK A01 T01191043  RH  032%=      5-min Rain = 0
KWE1 172327Z 21002KT 12/M05 A301 RMK A01 T01171045  RH  032%=      5-min Rain = 0
KWE1 172328Z 21002KT 12/M05 A301 RMK A01 T01161045  RH  032%=      5-min Rain = 0
KWE1 172329Z 21002KT 12/M05 A301 RMK A01 T01151047  RH  032%=      5-min Rain = 0
KWE1 172330Z 21002KT 11/M05 A301 RMK A01 T01141051  RH  031%=      5-min Rain = 0
KWE1 172331Z 21002KT 11/M05 A301 RMK A01 T01141052  RH  031%=      5-min Rain = 0
KWE1 172332Z 20002KT 11/M05 A301 RMK A01 T01141050  RH  031%=      5-min Rain = 0
KWE1 172333Z 20002KT 11/M05 A301 RMK A01 T01121049  RH  032%=      5-min Rain = 0
KWE1 172334Z 21003KT 11/M05 A301 RMK A01 T01121048  RH  032%=      5-min Rain = 0
KWE1 172335Z 21003KT 11/M05 A301 RMK A01 T01111045  RH  033%=      5-min Rain = 0
KWE1 172336Z 20003KT 11/M05 A301 RMK A01 T01101046  RH  033%=      5-min Rain = 0
KWE1 172337Z 19003KT 11/M05 A301 RMK A01 T01091046  RH  033%=      5-min Rain = 0
KWE1 172338Z 20003KT 11/M05 A301 RMK A01 T01091047  RH  033%=      5-min Rain = 0
KWE1 172339Z 20003KT 11/M05 A301 RMK A01 T01081046  RH  034%=      5-min Rain = 0
KWE1 172340Z 20003KT 11/M05 A301 RMK A01 T01071045  RH  034%=      5-min Rain = 0
KWE1 172341Z 20003KT 11/M05 A301 RMK A01 T01071045  RH  034%=      5-min Rain = 0
KWE1 172342Z 21003KT 11/M05 A301 RMK A01 T01071047  RH  034%=      5-min Rain = 0
KWE1 172343Z 21003KT 11/M05 A301 RMK A01 T01081048  RH  033%=      5-min Rain = 0
KWE1 172344Z 21003KT 11/M05 A301 RMK A01 T01081048  RH  033%=      5-min Rain = 0
KWE1 172345Z 21003KT 11/M05 A301 RMK A01 T01081047  RH  033%=      5-min Rain = 0
KWE1 172346Z 21003KT 11/M05 A301 RMK A01 T01071047  RH  034%=      5-min Rain = 0
KWE1 172347Z 22003KT 11/M05 A301 RMK A01 T01061045  RH  034%=      5-min Rain = 0
KWE1 172348Z 22003KT 11/M04 A301 RMK A01 T01051042  RH  035%=      5-min Rain = 0
KWE1 172349Z 22003KT 10/M05 A301 RMK A01 T01031045  RH  035%=      5-min Rain = 0
KWE1 172350Z 22003KT 10/M05 A301 RMK A01 T01031046  RH  035%=      5-min Rain = 0
KWE1 172351Z 22003KT 10/M05 A301 RMK A01 T01031046  RH  035%=      5-min Rain = 0
KWE1 172352Z 22003KT 10/M05 A301 RMK A01 T01031047  RH  035%=      5-min Rain = 0
KWE1 172353Z 22004KT 10/M05 A301 RMK A01 T01021047  RH  035%=      5-min Rain = 0
KWE1 172354Z 22004KT 10/M05 A301 RMK A01 T01021048  RH  035%=      5-min Rain = 0
KWE1 172355Z 22003KT 10/M05 A301 RMK A01 T01011048  RH  035%=      5-min Rain = 0
KWE1 172356Z 22003KT 10/M05 A301 RMK A01 T00991047  RH  035%=      5-min Rain = 0
KWE1 172357Z 22003KT 10/M05 A301 RMK A01 T00991048  RH  035%=      5-min Rain = 0
KWE1 172358Z 22003KT 10/M05 A301 RMK A01 T00991048  RH  035%=      5-min Rain = 0
KWE1 172359Z 22003KT 10/M05 A301 RMK A01 T00981048  RH  035%=      5-min Rain = 0
KWE1 180000Z 22003KT 10/M05 A301 RMK A01 T00981048  RH  035%=      5-min Rain = 0
KWE1 180001Z 21003KT 10/M05 A301 RMK A01 T00961048  RH  036%=      5-min Rain = 0
KWE1 180002Z 21003KT 10/M05 A301 RMK A01 T00961051  RH  035%=      5-min Rain = 0
KWE1 180003Z 21003KT 10/M05 A301 RMK A01 T00961052  RH  035%=      5-min Rain = 0
KWE1 180004Z 21003KT 10/M05 A301 RMK A01 T00971053  RH  034%=      5-min Rain = 0
KWE1 180005Z 20003KT 10/M05 A301 RMK A01 T00971053  RH  034%=      5-min Rain = 0
KWE1 180006Z 20003KT 10/M05 A301 RMK A01 T00971052  RH  035%=      5-min Rain = 0
KWE1 180007Z 19003KT 10/M05 A301 RMK A01 T00951049  RH  036%=      5-min Rain = 0
KWE1 180008Z 19004KT 09/M05 A301 RMK A01 T00901046  RH  038%=      5-min Rain = 0
KWE1 180009Z 19004KT 09/M05 A301 RMK A01 T00871045  RH  039%=      5-min Rain = 0
KWE1 180010Z 19004KT 09/M04 A3009 RMK A01 T00861044  RH  040%=      5-min Rain = 0
KWE1 180011Z 19005KT 08/M04 A3009 RMK A01 T00811041  RH  042%=      5-min Rain = 0
KWE1 180012Z 19005KT 08/M04 A3009 RMK A01 T00751040  RH  044%=      5-min Rain = 0
KWE1 180013Z 19004KT 07/M04 A3009 RMK A01 T00721042  RH  044%=      5-min Rain = 0
KWE1 180014Z 19005KT 07/M04 A3009 RMK A01 T00741044  RH  043%=      5-min Rain = 0
KWE1 180015Z 19005KT 08/M04 A3009 RMK A01 T00751043  RH  043%=      5-min Rain = 0
KWE1 180016Z 19005KT 08/M04 A3009 RMK A01 T00751042  RH  043%=      5-min Rain = 0
KWE1 180017Z 19005KT 07/M04 A3009 RMK A01 T00741042  RH  044%=      5-min Rain = 0
KWE1 180018Z 19005KT 07/M04 A3009 RMK A01 T00731042  RH  044%=      5-min Rain = 0
KWE1 180019Z 19005KT 07/M04 A3009 RMK A01 T00721041  RH  044%=      5-min Rain = 0
KWE1 180020Z 19005KT 07/M04 A3009 RMK A01 T00711040  RH  045%=      5-min Rain = 0
KWE1 180021Z 19005KT 07/M04 A3009 RMK A01 T00701040  RH  045%=      5-min Rain = 0
KWE1 180022Z 19005KT 07/M04 A3009 RMK A01 T00701042  RH  045%=      5-min Rain = 0
KWE1 180023Z 19005KT 07/M04 A3009 RMK A01 T00731044  RH  043%=      5-min Rain = 0
KWE1 180024Z 19004KT 08/M04 A3009 RMK A01 T00771044  RH  042%=      5-min Rain = 0
KWE1 180025Z 19004KT 08/M04 A3009 RMK A01 T00801044  RH  041%=      5-min Rain = 0
KWE1 180026Z 18004KT 08/M04 A3009 RMK A01 T00811044  RH  041%=      5-min Rain = 0
KWE1 180027Z 19005KT 08/M04 A3009 RMK A01 T00811043  RH  041%=      5-min Rain = 0
KWE1 180028Z 19005KT 08/M04 A3009 RMK A01 T00781043  RH  042%=      5-min Rain = 0
KWE1 180029Z 18005KT 08/M04 A3009 RMK A01 T00761042  RH  043%=      5-min Rain = 0
KWE1 180030Z 18005KT 08/M04 A3009 RMK A01 T00751042  RH  043%=      5-min Rain = 0
KWE1 180031Z 18005KT 08/M04 A3009 RMK A01 T00751042  RH  043%=      5-min Rain = 0
KWE1 180032Z 18005KT 07/M04 A3009 RMK A01 T00741041  RH  044%=      5-min Rain = 0
KWE1 180033Z 18005KT 07/M04 A3009 RMK A01 T00731041  RH  044%=      5-min Rain = 0
KWE1 180034Z 18005KT 07/M04 A3009 RMK A01 T00721041  RH  045%=      5-min Rain = 0
KWE1 180035Z 18005KT 07/M04 A3009 RMK A01 T00721041  RH  045%=      5-min Rain = 0
KWE1 180036Z 18005KT 07/M04 A3009 RMK A01 T00711042  RH  044%=      5-min Rain = 0
KWE1 180037Z 18005KT 07/M04 A3009 RMK A01 T00721043  RH  044%=      5-min Rain = 0
KWE1 180038Z 18005KT 07/M04 A3009 RMK A01 T00731043  RH  044%=      5-min Rain = 0
KWE1 180039Z 18005KT 07/M04 A3009 RMK A01 T00721044  RH  043%=      5-min Rain = 0
KWE1 180040Z 18005KT 07/M04 A3009 RMK A01 T00731044  RH  043%=      5-min Rain = 0
KWE1 180041Z 18005KT 07/M04 A3009 RMK A01 T00741044  RH  043%=      5-min Rain = 0
KWE1 180042Z 18006KT 07/M04 A3009 RMK A01 T00731044  RH  043%=      5-min Rain = 0
KWE1 180043Z 19006KT 07/M04 A3009 RMK A01 T00701043  RH  044%=      5-min Rain = 0
KWE1 180044Z 19005KT 07/M04 A3009 RMK A01 T00661043  RH  046%=      5-min Rain = 0
KWE1 180045Z 19006KT 06/M04 A3009 RMK A01 T00631043  RH  047%=      5-min Rain = 0
KWE1 180046Z 19006KT 06/M04 A3009 RMK A01 T00621042  RH  047%=      5-min Rain = 0
KWE1 180047Z 19005KT 06/M04 A3009 RMK A01 T00601041  RH  048%=      5-min Rain = 0
KWE1 180048Z 19005KT 06/M04 A3009 RMK A01 T00581041  RH  049%=      5-min Rain = 0
KWE1 180049Z 19004KT 06/M04 A3009 RMK A01 T00571040  RH  050%=      5-min Rain = 0
KWE1 180050Z 18004KT 06/M04 A301 RMK A01 T00561040  RH  050%=      5-min Rain = 0
KWE1 180051Z 18004KT 06/M04 A301 RMK A01 T00551040  RH  050%=      5-min Rain = 0
KWE1 180052Z 18004KT 06/M04 A301 RMK A01 T00561041  RH  050%=      5-min Rain = 0
KWE1 180053Z 18004KT 06/M04 A301 RMK A01 T00571041  RH  049%=      5-min Rain = 0
KWE1 180054Z 18004KT 06/M04 A301 RMK A01 T00591041  RH  049%=      5-min Rain = 0
KWE1 180055Z 17005KT 06/M04 A301 RMK A01 T00611042  RH  048%=      5-min Rain = 0
KWE1 180056Z 17006KT 06/M04 A301 RMK A01 T00631041  RH  047%=      5-min Rain = 0
KWE1 180057Z 17005KT 06/M04 A301 RMK A01 T00621041  RH  047%=      5-min Rain = 0
KWE1 180058Z 18005KT 06/M04 A301 RMK A01 T00621042  RH  047%=      5-min Rain = 0
KWE1 180059Z 18005KT 06/M04 A301 RMK A01 T00611042  RH  048%=      5-min Rain = 0
KWE1 180100Z 18005KT 06/M04 A301 RMK A01 T00601041  RH  048%=      5-min Rain = 0
KWE1 180101Z 18005KT 06/M04 A301 RMK A01 T00591040  RH  049%=      5-min Rain = 0
KWE1 180102Z 19005KT 06/M04 A301 RMK A01 T00591040  RH  049%=      5-min Rain = 0
KWE1 180103Z 19006KT 06/M04 A301 RMK A01 T00591040  RH  049%=      5-min Rain = 0
KWE1 180104Z 19006KT 06/M04 A301 RMK A01 T00601040  RH  049%=      5-min Rain = 0
KWE1 180105Z 19005KT 06/M04 A301 RMK A01 T00611041  RH  048%=      5-min Rain = 0
KWE1 180106Z 19005KT 06/M04 A301 RMK A01 T00611041  RH  048%=      5-min Rain = 0
KWE1 180107Z 19005KT 06/M04 A301 RMK A01 T00621042  RH  047%=      5-min Rain = 0
KWE1 180108Z 19004KT 06/M04 A301 RMK A01 T00631042  RH  047%=      5-min Rain = 0
KWE1 180109Z 18004KT 06/M04 A301 RMK A01 T00641042  RH  047%=      5-min Rain = 0
KWE1 180110Z 19004KT 06/M04 A301 RMK A01 T00631042  RH  047%=      5-min Rain = 0
KWE1 180111Z 19004KT 06/M04 A301 RMK A01 T00631043  RH  047%=      5-min Rain = 0
KWE1 180112Z 19004KT 06/M04 A3011 RMK A01 T00621042  RH  047%=      5-min Rain = 0
KWE1 180113Z 19004KT 06/M04 A3011 RMK A01 T00581041  RH  049%=      5-min Rain = 0
KWE1 180114Z 19005KT 05/M04 A301 RMK A01 T00541041  RH  050%=      5-min Rain = 0
KWE1 180115Z 19005KT 05/M04 A301 RMK A01 T00521042  RH  051%=      5-min Rain = 0
KWE1 180116Z 19005KT 05/M04 A301 RMK A01 T00531042  RH  051%=      5-min Rain = 0
KWE1 180117Z 19005KT 05/M04 A301 RMK A01 T00531042  RH  051%=      5-min Rain = 0
KWE1 180118Z 19005KT 05/M04 A301 RMK A01 T00521042  RH  051%=      5-min Rain = 0
KWE1 180119Z 19006KT 05/M04 A301 RMK A01 T00491042  RH  052%=      5-min Rain = 0
KWE1 180120Z 19006KT 05/M04 A301 RMK A01 T00471041  RH  053%=      5-min Rain = 0
KWE1 180121Z 19006KT 05/M04 A301 RMK A01 T00461041  RH  053%=      5-min Rain = 0
KWE1 180122Z 19006KT 05/M04 A301 RMK A01 T00471040  RH  053%=      5-min Rain = 0
KWE1 180123Z 19006KT 05/M04 A301 RMK A01 T00491040  RH  052%=      5-min Rain = 0
KWE1 180124Z 19005KT 05/M04 A301 RMK A01 T00501041  RH  052%=      5-min Rain = 0
KWE1 180125Z 19005KT 05/M04 A301 RMK A01 T00501041  RH  052%=      5-min Rain = 0
KWE1 180126Z 19005KT 05/M04 A301 RMK A01 T00491041  RH  052%=      5-min Rain = 0
KWE1 180127Z 19005KT 05/M04 A301 RMK A01 T00471041  RH  053%=      5-min Rain = 0
KWE1 180128Z 19005KT 05/M04 A301 RMK A01 T00451040  RH  054%=      5-min Rain = 0
KWE1 180129Z 19005KT 04/M04 A301 RMK A01 T00441040  RH  054%=      5-min Rain = 0
KWE1 180130Z 19005KT 04/M04 A301 RMK A01 T00431040  RH  055%=      5-min Rain = 0
KWE1 180131Z 19005KT 04/M04 A301 RMK A01 T00421039  RH  055%=      5-min Rain = 0
KWE1 180132Z 19006KT 04/M04 A301 RMK A01 T00401040  RH  056%=      5-min Rain = 0
KWE1 180133Z 19006KT 04/M04 A301 RMK A01 T00391040  RH  056%=      5-min Rain = 0
KWE1 180134Z 19005KT 04/M04 A301 RMK A01 T00401039  RH  056%=      5-min Rain = 0
KWE1 180135Z 19006KT 04/M04 A301 RMK A01 T00411039  RH  056%=      5-min Rain = 0
KWE1 180136Z 19005KT 04/M04 A301 RMK A01 T00411039  RH  056%=      5-min Rain = 0
KWE1 180137Z 19006KT 04/M04 A301 RMK A01 T00411039  RH  056%=      5-min Rain = 0
KWE1 180138Z 17005KT 04/M04 A301 RMK A01 T00401039  RH  056%=      5-min Rain = 0
KWE1 180139Z 18006KT 04/M04 A301 RMK A01 T00371040  RH  058%=      5-min Rain = 0
KWE1 180140Z 18007KT 04/M04 A301 RMK A01 T00351039  RH  058%=      5-min Rain = 0
KWE1 180141Z 19007KT 03/M04 A301 RMK A01 T00341038  RH  059%=      5-min Rain = 0
KWE1 180142Z 19007KT 04/M04 A301 RMK A01 T00351038  RH  059%=      5-min Rain = 0
KWE1 180143Z 19007KT 04/M04 A301 RMK A01 T00381037  RH  058%=      5-min Rain = 0
KWE1 180144Z 18006KT 04/M04 A301 RMK A01 T00401037  RH  057%=      5-min Rain = 0
KWE1 180145Z 18006KT 04/M04 A301 RMK A01 T00421037  RH  057%=      5-min Rain = 0
KWE1 180146Z 18007KT 04/M04 A301 RMK A01 T00421038  RH  056%=      5-min Rain = 0
KWE1 180147Z 18006KT 04/M04 A301 RMK A01 T00431038  RH  056%=      5-min Rain = 0
KWE1 180148Z 18007KT 04/M04 A301 RMK A01 T00431038  RH  055%=      5-min Rain = 0
KWE1 180149Z 18007KT 04/M04 A301 RMK A01 T00441038  RH  055%=      5-min Rain = 0
KWE1 180150Z 18007KT 05/M04 A301 RMK A01 T00451038  RH  055%=      5-min Rain = 0
KWE1 180151Z 19007KT 04/M04 A301 RMK A01 T00441038  RH  055%=      5-min Rain = 0
KWE1 180152Z 19006KT 04/M04 A301 RMK A01 T00421038  RH  056%=      5-min Rain = 0
KWE1 180153Z 19006KT 04/M04 A301 RMK A01 T00401039  RH  056%=      5-min Rain = 0
KWE1 180154Z 19006KT 04/M04 A301 RMK A01 T00401038  RH  057%=      5-min Rain = 0
KWE1 180155Z 19006KT 04/M04 A301 RMK A01 T00391038  RH  057%=      5-min Rain = 0
KWE1 180156Z 19006KT 04/M04 A301 RMK A01 T00391038  RH  057%=      5-min Rain = 0
KWE1 180157Z 19006KT 04/M04 A301 RMK A01 T00381038  RH  058%=      5-min Rain = 0
KWE1 180158Z 19006KT 04/M04 A301 RMK A01 T00381038  RH  057%=      5-min Rain = 0
KWE1 180159Z 19006KT 04/M04 A301 RMK A01 T00381038  RH  057%=      5-min Rain = 0
KWE1 180200Z 19006KT 04/M04 A301 RMK A01 T00381038  RH  057%=      5-min Rain = 0
KWE1 180201Z 19006KT 04/M04 A301 RMK A01 T00381038  RH  057%=      5-min Rain = 0
KWE1 180202Z 19006KT 04/M04 A3009 RMK A01 T00381038  RH  058%=      5-min Rain = 0
KWE1 180203Z 18005KT 04/M04 A3009 RMK A01 T00371038  RH  058%=      5-min Rain = 0
KWE1 180204Z 17004KT 04/M04 A3009 RMK A01 T00351039  RH  059%=      5-min Rain = 0
KWE1 180205Z 18005KT 03/M04 A301 RMK A01 T00341038  RH  059%=      5-min Rain = 0
KWE1 180206Z 18005KT 03/M04 A301 RMK A01 T00331038  RH  059%=      5-min Rain = 0
KWE1 180207Z 19005KT 03/M04 A301 RMK A01 T00331038  RH  060%=      5-min Rain = 0
KWE1 180208Z 19005KT 03/M04 A301 RMK A01 T00331038  RH  060%=      5-min Rain = 0
KWE1 180209Z 18005KT 03/M04 A301 RMK A01 T00341038  RH  060%=      5-min Rain = 0
KWE1 180210Z 19006KT 03/M04 A301 RMK A01 T00341038  RH  060%=      5-min Rain = 0
KWE1 180211Z 19006KT 03/M04 A301 RMK A01 T00331038  RH  060%=      5-min Rain = 0
KWE1 180212Z 19006KT 03/M04 A301 RMK A01 T00321038  RH  060%=      5-min Rain = 0
KWE1 180213Z 19006KT 03/M04 A301 RMK A01 T00301038  RH  061%=      5-min Rain = 0
KWE1 180214Z 20005KT 03/M04 A301 RMK A01 T00281038  RH  062%=      5-min Rain = 0
KWE1 180215Z 20006KT 03/M04 A301 RMK A01 T00271037  RH  063%=      5-min Rain = 0
KWE1 180216Z 20005KT 03/M04 A301 RMK A01 T00281036  RH  062%=      5-min Rain = 0
KWE1 180217Z 19005KT 03/M04 A301 RMK A01 T00291038  RH  061%=      5-min Rain = 0
KWE1 180218Z 19006KT 03/M04 A301 RMK A01 T00291038  RH  061%=      5-min Rain = 0
KWE1 180219Z 19006KT 03/M04 A301 RMK A01 T00311037  RH  061%=      5-min Rain = 0
KWE1 180220Z 19006KT 03/M04 A301 RMK A01 T00321036  RH  061%=      5-min Rain = 0
KWE1 180221Z 20006KT 03/M04 A301 RMK A01 T00341036  RH  060%=      5-min Rain = 0
KWE1 180222Z 20006KT 04/M04 A301 RMK A01 T00351037  RH  059%=      5-min Rain = 0
KWE1 180223Z 20006KT 04/M04 A301 RMK A01 T00361037  RH  059%=      5-min Rain = 0
KWE1 180224Z 20006KT 04/M04 A301 RMK A01 T00351037  RH  059%=      5-min Rain = 0
KWE1 180225Z 20005KT 03/M04 A301 RMK A01 T00341038  RH  059%=      5-min Rain = 0
KWE1 180226Z 20006KT 03/M04 A301 RMK A01 T00341037  RH  059%=      5-min Rain = 0
KWE1 180227Z 20006KT 04/M04 A301 RMK A01 T00361036  RH  059%=      5-min Rain = 0
KWE1 180228Z 20006KT 04/M04 A301 RMK A01 T00371036  RH  059%=      5-min Rain = 0
KWE1 180229Z 20005KT 04/M04 A301 RMK A01 T00371037  RH  058%=      5-min Rain = 0
KWE1 180230Z 21005KT 04/M04 A301 RMK A01 T00361038  RH  058%=      5-min Rain = 0
KWE1 180231Z 21005KT 04/M04 A301 RMK A01 T00351039  RH  058%=      5-min Rain = 0
KWE1 180232Z 21005KT 03/M04 A301 RMK A01 T00341040  RH  058%=      5-min Rain = 0
KWE1 180233Z 21004KT 03/M04 A3009 RMK A01 T00341040  RH  058%=      5-min Rain = 0
KWE1 180234Z 20004KT 03/M04 A3009 RMK A01 T00341041  RH  058%=      5-min Rain = 0
KWE1 180235Z 20004KT 04/M04 A3009 RMK A01 T00351041  RH  057%=      5-min Rain = 0
KWE1 180236Z 20004KT 04/M04 A3009 RMK A01 T00361040  RH  057%=      5-min Rain = 0
KWE1 180237Z 19004KT 04/M04 A3009 RMK A01 T00371039  RH  058%=      5-min Rain = 0
KWE1 180238Z 19004KT 04/M04 A3009 RMK A01 T00371039  RH  057%=      5-min Rain = 0
KWE1 180239Z 19004KT 04/M04 A3009 RMK A01 T00361039  RH  058%=      5-min Rain = 0
KWE1 180240Z 18005KT 04/M04 A3009 RMK A01 T00361039  RH  058%=      5-min Rain = 0
KWE1 180241Z 18004KT 04/M04 A3009 RMK A01 T00361039  RH  058%=      5-min Rain = 0
KWE1 180242Z 19005KT 04/M04 A3009 RMK A01 T00351039  RH  058%=      5-min Rain = 0
KWE1 180243Z 19005KT 03/M04 A3009 RMK A01 T00341039  RH  059%=      5-min Rain = 0
KWE1 180244Z 19005KT 03/M04 A3009 RMK A01 T00331039  RH  059%=      5-min Rain = 0
KWE1 180245Z 18005KT 03/M04 A3009 RMK A01 T00311039  RH  060%=      5-min Rain = 0
KWE1 180246Z 18006KT 03/M04 A3009 RMK A01 T00291039  RH  061%=      5-min Rain = 0
KWE1 180247Z 18006KT 03/M04 A3009 RMK A01 T00281039  RH  062%=      5-min Rain = 0
KWE1 180248Z 18006KT 03/M04 A3009 RMK A01 T00271038  RH  062%=      5-min Rain = 0
KWE1 180249Z 18006KT 03/M04 A3009 RMK A01 T00271037  RH  063%=      5-min Rain = 0
KWE1 180250Z 18006KT 03/M04 A3009 RMK A01 T00261037  RH  063%=      5-min Rain = 0
KWE1 180251Z 19006KT 03/M04 A3009 RMK A01 T00261037  RH  063%=      5-min Rain = 0
KWE1 180252Z 19006KT 03/M04 A3009 RMK A01 T00271036  RH  063%=      5-min Rain = 0
KWE1 180253Z 19006KT 03/M04 A3009 RMK A01 T00271036  RH  063%=      5-min Rain = 0
KWE1 180254Z 19006KT 03/M04 A3009 RMK A01 T00271036  RH  063%=      5-min Rain = 0
KWE1 180255Z 18005KT 03/M04 A3009 RMK A01 T00271036  RH  063%=      5-min Rain = 0
KWE1 180256Z 17005KT 03/M04 A3009 RMK A01 T00271036  RH  063%=      5-min Rain = 0
KWE1 180257Z 18007KT 03/M04 A3009 RMK A01 T00271036  RH  063%=      5-min Rain = 0
KWE1 180258Z 19007KT 03/M04 A3009 RMK A01 T00281035  RH  063%=      5-min Rain = 0
KWE1 180259Z 18006KT 03/M04 A3009 RMK A01 T00281035  RH  063%=      5-min Rain = 0
KWE1 180300Z 18006KT 03/M04 A3009 RMK A01 T00281035  RH  063%=      5-min Rain = 0
KWE1 180301Z 18005KT 03/M04 A3009 RMK A01 T00271035  RH  064%=      5-min Rain = 0
KWE1 180302Z 17006KT 03/M04 A3009 RMK A01 T00261035  RH  064%=      5-min Rain = 0
KWE1 180303Z 18007KT 03/M03 A3009 RMK A01 T00261034  RH  064%=      5-min Rain = 0
KWE1 180304Z 18006KT 03/M03 A3009 RMK A01 T00261034  RH  064%=      5-min Rain = 0
KWE1 180305Z 18006KT 03/M03 A3009 RMK A01 T00271034  RH  064%=      5-min Rain = 0
KWE1 180306Z 18006KT 03/M03 A3009 RMK A01 T00271034  RH  064%=      5-min Rain = 0
KWE1 180307Z 18006KT 03/M03 A3009 RMK A01 T00271034  RH  064%=      5-min Rain = 0
KWE1 180308Z 18007KT 03/M03 A3009 RMK A01 T00271034  RH  064%=      5-min Rain = 0
KWE1 180309Z 18007KT 03/M03 A3009 RMK A01 T00271034  RH  064%=      5-min Rain = 0
KWE1 180310Z 18007KT 03/M03 A3009 RMK A01 T00271034  RH  064%=      5-min Rain = 0
KWE1 180311Z 18007KT 03/M03 A3009 RMK A01 T00281034  RH  064%=      5-min Rain = 0
KWE1 180312Z 19007KT 03/M03 A3009 RMK A01 T00291034  RH  064%=      5-min Rain = 0
KWE1 180313Z 19006KT 03/M03 A3009 RMK A01 T00291034  RH  063%=      5-min Rain = 0
KWE1 180314Z 19006KT 03/M03 A3009 RMK A01 T00301034  RH  063%=      5-min Rain = 0
KWE1 180315Z 19007KT 03/M03 A3009 RMK A01 T00301033  RH  063%=      5-min Rain = 0
KWE1 180316Z 19007KT 03/M03 A3009 RMK A01 T00301033  RH  063%=      5-min Rain = 0
KWE1 180317Z 19006KT 03/M03 A3009 RMK A01 T00291034  RH  063%=      5-min Rain = 0
KWE1 180318Z 19007KT 03/M03 A3008 RMK A01 T00291034  RH  064%=      5-min Rain = 0
KWE1 180319Z 19006KT 03/M03 A3008 RMK A01 T00291034  RH  064%=      5-min Rain = 0
KWE1 180320Z 19007KT 03/M03 A3008 RMK A01 T00281034  RH  064%=      5-min Rain = 0
KWE1 180321Z 19007KT 03/M03 A3008 RMK A01 T00271034  RH  064%=      5-min Rain = 0
KWE1 180322Z 19007KT 03/M03 A3008 RMK A01 T00271034  RH  064%=      5-min Rain = 0
KWE1 180323Z 19007KT 03/M03 A3008 RMK A01 T00271034  RH  064%=      5-min Rain = 0
KWE1 180324Z 19006KT 03/M04 A3008 RMK A01 T00261035  RH  064%=      5-min Rain = 0
KWE1 180325Z 19007KT 02/M04 A3008 RMK A01 T00241035  RH  065%=      5-min Rain = 0
KWE1 180326Z 19007KT 02/M03 A3008 RMK A01 T00241034  RH  066%=      5-min Rain = 0
KWE1 180327Z 20007KT 03/M03 A3008 RMK A01 T00251034  RH  065%=      5-min Rain = 0
KWE1 180328Z 19007KT 03/M03 A3008 RMK A01 T00281033  RH  064%=      5-min Rain = 0
KWE1 180329Z 19007KT 03/M03 A3008 RMK A01 T00311034  RH  063%=      5-min Rain = 0
KWE1 180330Z 19007KT 03/M03 A3008 RMK A01 T00331034  RH  061%=      5-min Rain = 0
KWE1 180331Z 19007KT 03/M04 A3008 RMK A01 T00341035  RH  061%=      5-min Rain = 0
KWE1 180332Z 19007KT 03/M04 A3008 RMK A01 T00341036  RH  060%=      5-min Rain = 0
KWE1 180333Z 19008KT 03/M04 A3008 RMK A01 T00341036  RH  060%=      5-min Rain = 0
KWE1 180334Z 19007KT 04/M04 A3008 RMK A01 T00351035  RH  060%=      5-min Rain = 0
KWE1 180335Z 19007KT 03/M04 A3008 RMK A01 T00341036  RH  060%=      5-min Rain = 0
KWE1 180336Z 19008KT 04/M04 A3008 RMK A01 T00351036  RH  060%=      5-min Rain = 0
KWE1 180337Z 19008KT 04/M04 A3008 RMK A01 T00351036  RH  060%=      5-min Rain = 0
KWE1 180338Z 19007KT 04/M04 A3008 RMK A01 T00351036  RH  060%=      5-min Rain = 0
KWE1 180339Z 19007KT 04/M04 A3008 RMK A01 T00351036  RH  060%=      5-min Rain = 0
KWE1 180340Z 19007KT 04/M04 A3008 RMK A01 T00361036  RH  060%=      5-min Rain = 0
KWE1 180341Z 20007KT 04/M04 A3008 RMK A01 T00361036  RH  059%=      5-min Rain = 0
KWE1 180342Z 20007KT 04/M04 A3008 RMK A01 T00361036  RH  059%=      5-min Rain = 0
KWE1 180343Z 20006KT 04/M04 A3008 RMK A01 T00361036  RH  059%=      5-min Rain = 0
KWE1 180344Z 21005KT 04/M04 A3008 RMK A01 T00351036  RH  060%=      5-min Rain = 0
KWE1 180345Z 20006KT 03/M04 A3008 RMK A01 T00341035  RH  060%=      5-min Rain = 0
KWE1 180346Z 21006KT 03/M04 A3008 RMK A01 T00341036  RH  060%=      5-min Rain = 0
KWE1 180347Z 20006KT 04/M04 A3008 RMK A01 T00361035  RH  059%=      5-min Rain = 0
KWE1 180348Z 21005KT 04/M04 A3008 RMK A01 T00371036  RH  059%=      5-min Rain = 0
KWE1 180349Z 21006KT 04/M04 A3008 RMK A01 T00381037  RH  058%=      5-min Rain = 0
KWE1 180350Z 21006KT 04/M04 A3007 RMK A01 T00401038  RH  057%=      5-min Rain = 0
KWE1 180351Z 21006KT 04/M04 A3007 RMK A01 T00401038  RH  057%=      5-min Rain = 0
KWE1 180352Z 21006KT 04/M04 A3007 RMK A01 T00401039  RH  056%=      5-min Rain = 0
KWE1 180353Z 20006KT 04/M04 A3007 RMK A01 T00391040  RH  056%=      5-min Rain = 0
KWE1 180354Z 20006KT 04/M04 A3007 RMK A01 T00401040  RH  056%=      5-min Rain = 0
KWE1 180355Z 20005KT 04/M04 A3007 RMK A01 T00401040  RH  056%=      5-min Rain = 0
KWE1 180356Z 20005KT 04/M04 A3007 RMK A01 T00401039  RH  056%=      5-min Rain = 0
KWE1 180357Z 20005KT 04/M04 A3007 RMK A01 T00381039  RH  057%=      5-min Rain = 0
KWE1 180358Z 20005KT 04/M04 A3007 RMK A01 T00351040  RH  058%=      5-min Rain = 0
KWE1 180359Z 20005KT 03/M04 A3007 RMK A01 T00331039  RH  059%=      5-min Rain = 0
KWE1 180400Z 20004KT 03/M04 A3007 RMK A01 T00321038  RH  060%=      5-min Rain = 0
KWE1 180401Z 20004KT 03/M04 A3007 RMK A01 T00311038  RH  061%=      5-min Rain = 0
KWE1 180402Z 19003KT 03/M04 A3007 RMK A01 T00301038  RH  061%=      5-min Rain = 0
KWE1 180403Z 19003KT 03/M04 A3007 RMK A01 T00291038  RH  061%=      5-min Rain = 0
KWE1 180404Z 19003KT 03/M04 A3007 RMK A01 T00291038  RH  062%=      5-min Rain = 0
KWE1 180405Z 19004KT 03/M04 A3007 RMK A01 T00271038  RH  062%=      5-min Rain = 0
KWE1 180406Z 19003KT 03/M04 A3007 RMK A01 T00261038  RH  063%=      5-min Rain = 0
KWE1 180407Z 19002KT 03/M04 A3007 RMK A01 T00271037  RH  063%=      5-min Rain = 0
KWE1 180408Z 19002KT 03/M04 A3007 RMK A01 T00261038  RH  063%=      5-min Rain = 0
KWE1 180409Z 19002KT 03/M04 A3007 RMK A01 T00271038  RH  062%=      5-min Rain = 0
KWE1 180410Z 19003KT 03/M04 A3007 RMK A01 T00271037  RH  062%=      5-min Rain = 0
KWE1 180411Z 20003KT 03/M04 A3007 RMK A01 T00281037  RH  062%=      5-min Rain = 0
KWE1 180412Z 20003KT 03/M04 A3007 RMK A01 T00291036  RH  062%=      5-min Rain = 0
KWE1 180413Z 20003KT 03/M04 A3007 RMK A01 T00291037  RH  062%=      5-min Rain = 0
KWE1 180414Z 20004KT 03/M04 A3007 RMK A01 T00301036  RH  062%=      5-min Rain = 0
KWE1 180415Z 20004KT 03/M04 A3007 RMK A01 T00301035  RH  062%=      5-min Rain = 0
KWE1 180416Z 19005KT 03/M04 A3007 RMK A01 T00291036  RH  062%=      5-min Rain = 0
KWE1 180417Z 19006KT 03/M04 A3006 RMK A01 T00301036  RH  062%=      5-min Rain = 0
KWE1 180418Z 20007KT 03/M04 A3006 RMK A01 T00311037  RH  061%=      5-min Rain = 0
KWE1 180419Z 20006KT 03/M04 A3006 RMK A01 T00321038  RH  060%=      5-min Rain = 0
KWE1 180420Z 20006KT 03/M04 A3006 RMK A01 T00331038  RH  060%=      5-min Rain = 0
KWE1 180421Z 20006KT 03/M04 A3006 RMK A01 T00331039  RH  059%=      5-min Rain = 0
KWE1 180422Z 21005KT 03/M04 A3006 RMK A01 T00321039  RH  060%=      5-min Rain = 0
KWE1 180423Z 20004KT 03/M04 A3006 RMK A01 T00311039  RH  060%=      5-min Rain = 0
KWE1 180424Z 20005KT 03/M04 A3006 RMK A01 T00301040  RH  060%=      5-min Rain = 0
KWE1 180425Z 20005KT 03/M04 A3006 RMK A01 T00291040  RH  060%=      5-min Rain = 0
KWE1 180426Z 20007KT 03/M04 A3006 RMK A01 T00301039  RH  061%=      5-min Rain = 0
KWE1 180427Z 20006KT 03/M04 A3006 RMK A01 T00301039  RH  061%=      5-min Rain = 0
KWE1 180428Z 20005KT 03/M04 A3006 RMK A01 T00311038  RH  060%=      5-min Rain = 0
KWE1 180429Z 19005KT 03/M04 A3006 RMK A01 T00311038  RH  060%=      5-min Rain = 0
KWE1 180430Z 20005KT 03/M04 A3006 RMK A01 T00321038  RH  060%=      5-min Rain = 0
KWE1 180431Z 20005KT 03/M04 A3006 RMK A01 T00321038  RH  060%=      5-min Rain = 0
KWE1 180432Z 20005KT 03/M04 A3006 RMK A01 T00311038  RH  061%=      5-min Rain = 0
KWE1 180433Z 20005KT 03/M04 A3006 RMK A01 T00301037  RH  061%=      5-min Rain = 0
KWE1 180434Z 20006KT 03/M04 A3006 RMK A01 T00291037  RH  062%=      5-min Rain = 0
KWE1 180435Z 20006KT 03/M04 A3006 RMK A01 T00291037  RH  062%=      5-min Rain = 0
KWE1 180436Z 20006KT 03/M04 A3006 RMK A01 T00291037  RH  062%=      5-min Rain = 0
KWE1 180437Z 20006KT 03/M04 A3006 RMK A01 T00291037  RH  062%=      5-min Rain = 0
KWE1 180438Z 20005KT 03/M04 A3006 RMK A01 T00291036  RH  062%=      5-min Rain = 0
KWE1 180439Z 20004KT 03/M04 A3006 RMK A01 T00291036  RH  062%=      5-min Rain = 0
KWE1 180440Z 20004KT 03/M04 A3006 RMK A01 T00281036  RH  063%=      5-min Rain = 0
KWE1 180441Z 20004KT 03/M04 A3006 RMK A01 T00271036  RH  063%=      5-min Rain = 0
KWE1 180442Z 19004KT 03/M04 A3006 RMK A01 T00261036  RH  064%=      5-min Rain = 0
KWE1 180443Z 19005KT 03/M04 A3006 RMK A01 T00261036  RH  064%=      5-min Rain = 0
KWE1 180444Z 19005KT 03/M04 A3006 RMK A01 T00281035  RH  063%=      5-min Rain = 0
KWE1 180445Z 19006KT 03/M04 A3006 RMK A01 T00311035  RH  062%=      5-min Rain = 0
KWE1 180446Z 19006KT 03/M04 A3006 RMK A01 T00331036  RH  061%=      5-min Rain = 0
KWE1 180447Z 19006KT 03/M04 A3006 RMK A01 T00331036  RH  060%=      5-min Rain = 0
KWE1 180448Z 19006KT 03/M04 A3006 RMK A01 T00331037  RH  060%=      5-min Rain = 0
KWE1 180449Z 19007KT 03/M04 A3006 RMK A01 T00321037  RH  060%=      5-min Rain = 0
KWE1 180450Z 19007KT 03/M04 A3006 RMK A01 T00321037  RH  061%=      5-min Rain = 0
KWE1 180451Z 19007KT 03/M04 A3006 RMK A01 T00311037  RH  061%=      5-min Rain = 0
KWE1 180452Z 20006KT 03/M04 A3006 RMK A01 T00311036  RH  061%=      5-min Rain = 0
KWE1 180453Z 19006KT 03/M04 A3006 RMK A01 T00311036  RH  061%=      5-min Rain = 0
KWE1 180454Z 20006KT 03/M04 A3006 RMK A01 T00311036  RH  062%=      5-min Rain = 0
KWE1 180455Z 20006KT 03/M04 A3006 RMK A01 T00311035  RH  062%=      5-min Rain = 0
KWE1 180456Z 19006KT 03/M04 A3006 RMK A01 T00301036  RH  062%=      5-min Rain = 0
KWE1 180457Z 20006KT 03/M04 A3005 RMK A01 T00301036  RH  062%=      5-min Rain = 0
KWE1 180458Z 20007KT 03/M04 A3005 RMK A01 T00301036  RH  062%=      5-min Rain = 0
KWE1 180459Z 19006KT 03/M04 A3005 RMK A01 T00301036  RH  062%=      5-min Rain = 0
KWE1 180500Z 19007KT 03/M04 A3005 RMK A01 T00301036  RH  062%=      5-min Rain = 0
KWE1 180501Z 19007KT 03/M04 A3005 RMK A01 T00291036  RH  062%=      5-min Rain = 0
KWE1 180502Z 19007KT 03/M04 A3005 RMK A01 T00301036  RH  062%=      5-min Rain = 0
KWE1 180503Z 19007KT 03/M04 A3005 RMK A01 T00301036  RH  062%=      5-min Rain = 0
KWE1 180504Z 19008KT 03/M04 A3005 RMK A01 T00301036  RH  062%=      5-min Rain = 0
KWE1 180505Z 19008KT 03/M04 A3005 RMK A01 T00301037  RH  062%=      5-min Rain = 0
KWE1 180506Z 18008KT 03/M04 A3005 RMK A01 T00301037  RH  062%=      5-min Rain = 0
KWE1 180507Z 19008KT 03/M04 A3005 RMK A01 T00291037  RH  062%=      5-min Rain = 0
KWE1 180508Z 18008KT 03/M04 A3005 RMK A01 T00291037  RH  062%=      5-min Rain = 0
KWE1 180509Z 18008KT 03/M04 A3005 RMK A01 T00291037  RH  062%=      5-min Rain = 0
KWE1 180510Z 19008KT 03/M04 A3004 RMK A01 T00291036  RH  062%=      5-min Rain = 0
KWE1 180511Z 18008KT 03/M04 A3004 RMK A01 T00291036  RH  062%=      5-min Rain = 0
KWE1 180512Z 19008KT 03/M04 A3004 RMK A01 T00301036  RH  062%=      5-min Rain = 0
KWE1 180513Z 18008KT 03/M04 A3004 RMK A01 T00311036  RH  062%=      5-min Rain = 0
KWE1 180514Z 18007KT 03/M04 A3004 RMK A01 T00311037  RH  061%=      5-min Rain = 0
KWE1 180515Z 18008KT 03/M04 A3004 RMK A01 T00311036  RH  061%=      5-min Rain = 0
KWE1 180516Z 18008KT 03/M04 A3004 RMK A01 T00311036  RH  061%=      5-min Rain = 0
KWE1 180517Z 18008KT 03/M04 A3004 RMK A01 T00311036  RH  061%=      5-min Rain = 0
KWE1 180518Z 19008KT 03/M04 A3004 RMK A01 T00301036  RH  062%=      5-min Rain = 0
KWE1 180519Z 19009KT 03/M04 A3004 RMK A01 T00291036  RH  062%=      5-min Rain = 0
KWE1 180520Z 18008KT 03/M04 A3004 RMK A01 T00291036  RH  062%=      5-min Rain = 0
KWE1 180521Z 18008KT 03/M04 A3004 RMK A01 T00291036  RH  062%=      5-min Rain = 0
KWE1 180522Z 18008KT 03/M04 A3003 RMK A01 T00291037  RH  062%=      5-min Rain = 0
KWE1 180523Z 18008KT 03/M04 A3003 RMK A01 T00291037  RH  062%=      5-min Rain = 0
KWE1 180524Z 18008KT 03/M04 A3003 RMK A01 T00301036  RH  062%=      5-min Rain = 0
KWE1 180525Z 18008KT 03/M04 A3003 RMK A01 T00291037  RH  062%=      5-min Rain = 0
KWE1 180526Z 18008KT 03/M04 A3003 RMK A01 T00281037  RH  062%=      5-min Rain = 0
KWE1 180527Z 18008KT 03/M04 A3003 RMK A01 T00271036  RH  063%=      5-min Rain = 0
KWE1 180528Z 18009KT 03/M04 A3003 RMK A01 T00271036  RH  063%=      5-min Rain = 0
KWE1 180529Z 18009KT 03/M04 A3003 RMK A01 T00271036  RH  063%=      5-min Rain = 0
KWE1 180530Z 18009KT 03/M04 A3003 RMK A01 T00291036  RH  063%=      5-min Rain = 0
KWE1 180531Z 18009KT 03/M04 A3003 RMK A01 T00321035  RH  062%=      5-min Rain = 0
KWE1 180532Z 18008KT 03/M04 A3003 RMK A01 T00341035  RH  061%=      5-min Rain = 0
KWE1 180533Z 18009KT 04/M04 A3003 RMK A01 T00351035  RH  060%=      5-min Rain = 0
KWE1 180534Z 18008KT 04/M04 A3003 RMK A01 T00351036  RH  060%=      5-min Rain = 0
KWE1 180535Z 18007KT 04/M04 A3003 RMK A01 T00351036  RH  060%=      5-min Rain = 0
KWE1 180536Z 17008KT 04/M04 A3003 RMK A01 T00351036  RH  060%=      5-min Rain = 0
KWE1 180537Z 17007KT 04/M04 A3003 RMK A01 T00351036  RH  060%=      5-min Rain = 0
KWE1 180538Z 18007KT 03/M04 A3003 RMK A01 T00341036  RH  060%=      5-min Rain = 0
KWE1 180539Z 18007KT 03/M04 A3003 RMK A01 T00341036  RH  060%=      5-min Rain = 0
KWE1 180540Z 18006KT 03/M04 A3003 RMK A01 T00331036  RH  060%=      5-min Rain = 0
KWE1 180541Z 18006KT 03/M04 A3003 RMK A01 T00321036  RH  061%=      5-min Rain = 0
KWE1 180542Z 18007KT 03/M04 A3003 RMK A01 T00311036  RH  061%=      5-min Rain = 0
KWE1 180543Z 18007KT 03/M04 A3003 RMK A01 T00291036  RH  062%=      5-min Rain = 0
KWE1 180544Z 18007KT 03/M04 A3003 RMK A01 T00291036  RH  062%=      5-min Rain = 0
KWE1 180545Z 18007KT 03/M04 A3003 RMK A01 T00281036  RH  063%=      5-min Rain = 0
KWE1 180546Z 18007KT 03/M04 A3003 RMK A01 T00281037  RH  063%=      5-min Rain = 0
KWE1 180547Z 18007KT 03/M04 A3003 RMK A01 T00281037  RH  063%=      5-min Rain = 0
KWE1 180548Z 18008KT 03/M04 A3003 RMK A01 T00281036  RH  063%=      5-min Rain = 0
KWE1 180549Z 18007KT 03/M04 A3003 RMK A01 T00271036  RH  063%=      5-min Rain = 0
KWE1 180550Z 18007KT 03/M04 A3003 RMK A01 T00261036  RH  063%=      5-min Rain = 0
KWE1 180551Z 18007KT 03/M04 A3003 RMK A01 T00271036  RH  063%=      5-min Rain = 0
KWE1 180552Z 18008KT 03/M04 A3003 RMK A01 T00261036  RH  063%=      5-min Rain = 0
KWE1 180553Z 17008KT 03/M04 A3003 RMK A01 T00261037  RH  063%=      5-min Rain = 0
KWE1 180554Z 17007KT 03/M04 A3003 RMK A01 T00271037  RH  063%=      5-min Rain = 0
KWE1 180555Z 18008KT 03/M04 A3002 RMK A01 T00271037  RH  063%=      5-min Rain = 0
KWE1 180556Z 18008KT 03/M04 A3002 RMK A01 T00281037  RH  062%=      5-min Rain = 0
KWE1 180557Z 18008KT 03/M04 A3002 RMK A01 T00281037  RH  062%=      5-min Rain = 0
KWE1 180558Z 18008KT 03/M04 A3002 RMK A01 T00291037  RH  062%=      5-min Rain = 0
KWE1 180559Z 19008KT 03/M04 A3002 RMK A01 T00301037  RH  061%=      5-min Rain = 0

Page generated in 0.0656 seconds.